M I D A S
Marine Information and Data Acquisition System
Tripno 1188 of the Zeeleeuw from 2006-11-23 08:00:51 to 2006-11-23 12:56:23
Back to CruiseResearch ActivitiesStationsMapUnderway DataData graphs

EquipmentUnitsComment
TimeDGPSUTC
LatitudeDGPSDM.mWGS84
LongitudeDGPSDM.mWGS84
TemperatureSBE03/SBE38deg celciusITS90
ConductivitySBE21S/mITS90
SalinitySBE21 Practical Salinity Units
ChlorophylAChelsea fluorimeterg/lCalibrated in Aceton
Missing or incorrect values are displayed as -999
Sea surface data collected by the RV Zeeleeuw from 2006-11-23 08:01:19 to 2006-11-23 13:12:53
                                                                                    Next 1000 lines
Time Latitude Longitude Temperature Conductivity Salinity ChlorophylA
2006-11-23 08:01:29 51°13.598 2°56.09 -999 0.001902 0.016583 -2.871232
2006-11-23 08:01:34 51°13.599 2°56.087 -999 0.001902 0.016583 -2.871232
2006-11-23 08:01:39 51°13.6 2°56.082 -999 0.001902 0.016583 -2.871232
2006-11-23 08:01:44 51°13.601 2°56.078 -999 0.001902 0.016583 -2.871232
2006-11-23 08:01:49 51°13.602 2°56.073 -999 0.001902 0.016583 -2.871232
2006-11-23 08:01:55 51°13.604 2°56.066 -999 0.001902 0.016583 -2.871232
2006-11-23 08:01:59 51°13.605 2°56.061 -999 0.001902 0.016583 -2.871232
2006-11-23 08:02:05 51°13.607 2°56.053 -999 0.001902 0.016583 -2.871232
2006-11-23 08:02:09 51°13.609 2°56.048 -999 0.001902 0.016583 -2.871232
2006-11-23 08:02:15 51°13.611 2°56.039 -999 0.001902 0.016583 -2.871232
2006-11-23 08:02:19 51°13.612 2°56.033 -999 0.001902 0.016583 -2.871232
2006-11-23 08:02:25 51°13.615 2°56.024 -999 0.001902 0.016583 -2.871232
2006-11-23 08:02:29 51°13.617 2°56.016 -999 0.001902 0.016583 -2.871232
2006-11-23 08:02:34 51°13.619 2°56.007 -999 0.001902 0.016583 -2.871232
2006-11-23 08:02:39 51°13.621 2°55.998 -999 0.001902 0.016583 -2.871232
2006-11-23 08:02:45 51°13.623 2°55.986 -999 0.001902 0.016583 -2.871232
2006-11-23 08:02:49 51°13.625 2°55.978 -999 0.001902 0.016583 -2.871232
2006-11-23 08:02:55 51°13.628 2°55.966 -999 0.001902 0.016583 -2.871232
2006-11-23 08:02:59 51°13.63 2°55.958 -999 0.001902 0.016583 -2.871232
2006-11-23 08:03:05 51°13.633 2°55.945 -999 0.001902 0.016583 -2.871232
2006-11-23 08:03:10 51°13.636 2°55.935 -999 0.001902 0.016583 -2.871232
2006-11-23 08:03:15 51°13.639 2°55.925 -999 0.001902 0.016583 -2.871232
2006-11-23 08:03:19 51°13.641 2°55.917 -999 0.001902 0.016583 -2.871232
2006-11-23 08:03:25 51°13.645 2°55.905 -999 0.001902 0.016583 -2.871232
2006-11-23 08:03:29 51°13.648 2°55.897 -999 0.001902 0.016583 -2.871232
2006-11-23 08:03:35 51°13.652 2°55.886 -999 0.001902 0.016584 -2.871232
2006-11-23 08:03:39 51°13.654 2°55.878 -999 0.001902 0.016584 -2.871232
2006-11-23 08:03:43 51°13.657 2°55.871 -999 0.001902 0.016571 -2.871232
2006-11-23 08:03:47 51°13.66 2°55.864 -999 0.583994 3.528098 -2.871232
2006-11-23 08:03:54 51°13.665 2°55.852 -999 3.839481 26.706162 -2.871232
2006-11-23 08:03:59 51°13.669 2°55.844 -999 3.922828 28.002706 -2.871232
2006-11-23 08:04:04 51°13.673 2°55.836 -999 3.842107 28.580592 -2.871232
2006-11-23 08:04:09 51°13.677 2°55.827 -999 3.842107 28.580592 -2.871232
2006-11-23 08:04:15 51°13.682 2°55.817 -999 3.34617 25.471473 -2.871232
2006-11-23 08:04:19 51°13.685 2°55.81 -999 3.220936 25.274763 -2.871232
2006-11-23 08:04:25 51°13.69 2°55.8 -999 2.928351 23.281704 -2.871232
2006-11-23 08:04:29 51°13.694 2°55.794 -999 2.828868 22.760106 -2.871232
2006-11-23 08:04:34 51°13.698 2°55.785 -999 2.742121 22.238979 -2.871232
2006-11-23 08:04:39 51°13.703 2°55.776 -999 2.742121 22.238979 -2.871232
2006-11-23 08:04:45 51°13.707 2°55.766 -999 2.681024 21.816972 -2.871232
2006-11-23 08:04:49 51°13.71 2°55.76 -999 2.608979 21.277879 -2.871232
2006-11-23 08:04:55 51°13.714 2°55.751 -999 2.633476 21.558125 -2.871232
2006-11-23 08:04:59 51°13.716 2°55.744 -999 2.646811 21.722751 -2.871232
2006-11-23 08:05:03 51°13.718 2°55.739 -999 2.665108 21.929736 -2.871232
2006-11-23 08:05:09 51°13.721 2°55.732 -999 2.665108 21.929736 -2.871232
2006-11-23 08:05:14 51°13.722 2°55.728 -999 2.682889 22.119199 -2.871232
2006-11-23 08:05:19 51°13.722 2°55.728 -999 2.689609 22.200571 -2.871232
2006-11-23 08:05:23 51°13.723 2°55.728 -999 2.715454 22.462659 -2.871232
2006-11-23 08:05:29 51°13.723 2°55.729 -999 2.708528 22.418719 -2.871232
2006-11-23 08:05:34 51°13.724 2°55.73 -999 2.699431 22.353843 -2.871232
2006-11-23 08:05:38 51°13.724 2°55.732 -999 2.699431 22.353843 -2.871232
2006-11-23 08:05:44 51°13.725 2°55.734 -999 2.678135 22.182851 -2.871232
2006-11-23 08:05:49 51°13.726 2°55.737 -999 2.685268 22.257832 -2.871232
2006-11-23 08:05:54 51°13.727 2°55.739 -999 2.691058 22.325692 -2.871232
2006-11-23 08:05:59 51°13.729 2°55.742 -999 2.693332 22.351479 -2.871232
2006-11-23 08:06:04 51°13.73 2°55.744 -999 2.706358 22.465829 -2.871232
2006-11-23 08:06:09 51°13.732 2°55.745 -999 2.706358 22.465829 -2.871232
2006-11-23 08:06:14 51°13.733 2°55.746 -999 2.710286 22.507896 -2.871232
2006-11-23 08:06:19 51°13.734 2°55.745 -999 2.703877 22.458401 -2.871232
2006-11-23 08:06:24 51°13.734 2°55.744 -999 2.702016 22.449301 -2.871232
2006-11-23 08:06:29 51°13.734 2°55.743 -999 2.704394 22.477229 -2.871232
2006-11-23 08:06:34 51°13.733 2°55.741 -999 2.698812 22.432991 -2.871232
2006-11-23 08:06:39 51°13.731 2°55.739 -999 2.698812 22.432991 -2.871232
2006-11-23 08:06:43 51°13.729 2°55.737 -999 2.697158 22.425768 -2.871232
2006-11-23 08:06:49 51°13.727 2°55.734 -999 2.70243 22.470009 -2.871232
2006-11-23 08:06:55 51°13.724 2°55.731 -999 2.706875 22.508383 -2.871232
2006-11-23 08:07:00 51°13.723 2°55.728 -999 2.695607 22.407089 -2.871232
2006-11-23 08:07:05 51°13.721 2°55.727 -999 2.659219 22.091545 -2.871232
2006-11-23 08:07:09 51°13.721 2°55.726 -999 2.659219 22.091545 -2.871232
2006-11-23 08:07:14 51°13.721 2°55.725 -999 2.619734 21.746214 -2.871232
2006-11-23 08:07:19 51°13.722 2°55.725 -999 2.610535 21.67109 -2.871232
2006-11-23 08:07:23 51°13.723 2°55.725 -999 2.654465 22.073129 -2.871232
2006-11-23 08:07:29 51°13.726 2°55.724 -999 2.691989 22.408389 -2.871232
2006-11-23 08:07:34 51°13.728 2°55.723 -999 2.725381 22.711883 -2.871232
2006-11-23 08:07:39 51°13.731 2°55.721 -999 2.725381 22.711883 -2.871232
2006-11-23 08:07:44 51°13.735 2°55.718 -999 2.739028 22.833531 -2.871232
2006-11-23 08:07:49 51°13.738 2°55.715 -999 2.761774 23.044504 -2.871232
2006-11-23 08:07:54 51°13.743 2°55.71 -999 2.767978 23.102037 -2.871232
2006-11-23 08:07:59 51°13.747 2°55.705 -999 2.777904 23.197872 -2.871232
2006-11-23 08:08:03 51°13.752 2°55.701 -999 2.771183 23.136713 -2.871232
2006-11-23 08:08:09 51°13.759 2°55.694 -999 2.771183 23.136713 -2.871232
2006-11-23 08:08:14 51°13.765 2°55.689 -999 2.76043 23.038547 -2.871232
2006-11-23 08:08:19 51°13.772 2°55.683 -999 2.760017 23.041713 -2.871232
2006-11-23 08:08:24 51°13.779 2°55.677 -999 2.738408 22.851428 -2.871232
2006-11-23 08:08:29 51°13.786 2°55.671 -999 2.732205 22.79623 -2.871232
2006-11-23 08:08:33 51°13.792 2°55.665 -999 2.731171 22.782151 -2.871232
2006-11-23 08:08:39 51°13.802 2°55.657 -999 2.731171 22.782151 -2.871232
2006-11-23 08:08:44 51°13.81 2°55.651 -999 2.73603 22.827305 -2.871232
2006-11-23 08:08:49 51°13.819 2°55.644 -999 2.714009 22.626498 -2.871232
2006-11-23 08:08:54 51°13.827 2°55.637 -999 2.688371 22.392198 -2.871232
2006-11-23 08:08:59 51°13.836 2°55.631 -999 2.613016 21.710654 -2.871232
2006-11-23 08:09:03 51°13.843 2°55.625 -999 2.554001 21.17825 -2.871232
2006-11-23 08:09:09 51°13.854 2°55.617 -999 2.554001 21.17825 -2.871232
2006-11-23 08:09:14 51°13.863 2°55.611 -999 2.488794 20.594049 -2.871232
2006-11-23 08:09:19 51°13.872 2°55.604 -999 2.440333 20.157322 -2.871232
2006-11-23 08:09:24 51°13.881 2°55.597 -999 2.389915 19.710329 -2.871232
2006-11-23 08:09:29 51°13.89 2°55.59 -999 2.341568 19.284236 -2.871232
2006-11-23 08:09:34 51°13.899 2°55.583 -999 2.327416 19.155692 -2.871232
2006-11-23 08:09:39 51°13.908 2°55.576 -999 2.327416 19.155692 -2.871232
2006-11-23 08:09:44 51°13.917 2°55.569 -999 2.321941 19.112635 -2.871232
2006-11-23 08:09:49 51°13.926 2°55.562 -999 2.342085 19.301558 -2.871232
2006-11-23 08:09:54 51°13.936 2°55.556 -999 2.383613 19.675233 -2.871232
2006-11-23 08:09:59 51°13.945 2°55.549 -999 2.429175 20.087716 -2.871232
2006-11-23 08:10:04 51°13.954 2°55.543 -999 2.487348 20.611582 -2.871232
2006-11-23 08:10:09 51°13.963 2°55.536 -999 2.487348 20.611582 -2.871232
2006-11-23 08:10:14 51°13.972 2°55.53 -999 2.539533 21.079027 -2.871232
2006-11-23 08:10:19 51°13.981 2°55.524 -999 2.576325 21.403109 -2.871232
2006-11-23 08:10:23 51°13.988 2°55.519 -999 2.618391 21.776718 -2.871232
2006-11-23 08:10:29 51°13.999 2°55.512 -999 2.677 22.309478 -2.871232
2006-11-23 08:10:34 51°14.008 2°55.506 -999 2.728897 22.781378 -2.871232
2006-11-23 08:10:39 51°14.016 2°55.5 -999 2.728897 22.781378 -2.871232
2006-11-23 08:10:44 51°14.025 2°55.494 -999 2.779249 23.2389 -2.871232
2006-11-23 08:10:49 51°14.033 2°55.488 -999 2.810992 23.526422 -2.871232
2006-11-23 08:10:54 51°14.042 2°55.482 -999 2.837361 23.767087 -2.871232
2006-11-23 08:10:59 51°14.05 2°55.476 -999 2.854321 23.918735 -2.871232
2006-11-23 08:11:03 51°14.056 2°55.471 -999 2.851632 23.890914 -2.871232
2006-11-23 08:11:09 51°14.066 2°55.464 -999 2.851632 23.890914 -2.871232
2006-11-23 08:11:14 51°14.074 2°55.458 -999 2.843876 23.818773 -2.871232
2006-11-23 08:11:19 51°14.082 2°55.452 -999 2.819782 23.600267 -2.871232
2006-11-23 08:11:24 51°14.09 2°55.446 -999 2.794965 23.375297 -2.871232
2006-11-23 08:11:29 51°14.098 2°55.44 -999 2.752676 22.988788 -2.871232
2006-11-23 08:11:34 51°14.106 2°55.434 -999 2.717318 22.66882 -2.871232
2006-11-23 08:11:39 51°14.114 2°55.427 -999 2.717318 22.66882 -2.871232
2006-11-23 08:11:44 51°14.123 2°55.421 -999 2.702948 22.539895 -2.871232
2006-11-23 08:11:49 51°14.132 2°55.413 -999 2.692196 22.445884 -2.871232
2006-11-23 08:11:54 51°14.141 2°55.406 -999 2.697676 22.499508 -2.871232
2006-11-23 08:11:59 51°14.15 2°55.398 -999 2.712459 22.633385 -2.871232
2006-11-23 08:12:04 51°14.161 2°55.391 -999 2.750092 22.977788 -2.871232
2006-11-23 08:12:09 51°14.171 2°55.382 -999 2.750092 22.977788 -2.871232
2006-11-23 08:12:14 51°14.181 2°55.372 -999 2.783798 23.287807 -2.871232
2006-11-23 08:12:19 51°14.191 2°55.361 -999 2.797654 23.412436 -2.871232
2006-11-23 08:12:24 51°14.201 2°55.35 -999 2.824746 23.659122 -2.871232
2006-11-23 08:12:29 51°14.212 2°55.338 -999 2.843876 23.824177 -2.871232
2006-11-23 08:12:34 51°14.222 2°55.325 -999 2.851839 23.905475 -2.871232
2006-11-23 08:12:39 51°14.232 2°55.311 -999 2.851839 23.905475 -2.871232
2006-11-23 08:12:44 51°14.242 2°55.297 -999 2.845221 23.844392 -2.871232
2006-11-23 08:12:49 51°14.252 2°55.281 -999 2.847702 23.864287 -2.871232
2006-11-23 08:12:54 51°14.262 2°55.266 -999 2.839326 23.785208 -2.871232
2006-11-23 08:12:59 51°14.271 2°55.25 -999 2.821333 23.616939 -2.871232
2006-11-23 08:13:03 51°14.279 2°55.236 -999 2.807373 23.490124 -2.871232
2006-11-23 08:13:09 51°14.29 2°55.216 -999 2.807373 23.490124 -2.871232
2006-11-23 08:13:14 51°14.299 2°55.2 -999 2.793207 23.366776 -2.871232
2006-11-23 08:13:19 51°14.308 2°55.182 -999 2.766447 -999 -2.871232
2006-11-23 08:13:23 51°14.316 2°55.169 -999 2.766428 23.131479 -2.871232
2006-11-23 08:13:29 51°14.327 2°55.149 -999 2.766531 23.13243 -2.871232
2006-11-23 08:13:34 51°14.336 2°55.133 -999 2.761568 23.087947 -2.871232
2006-11-23 08:13:39 51°14.346 2°55.116 -999 2.761568 23.087947 -2.871232
2006-11-23 08:13:43 51°14.354 2°55.103 -999 2.763533 23.106599 -2.871232
2006-11-23 08:13:49 51°14.367 2°55.085 -999 2.757743 23.050441 -2.871232
2006-11-23 08:13:54 51°14.378 2°55.07 -999 2.758776 23.055876 -2.871232
2006-11-23 08:13:59 51°14.39 2°55.057 -999 2.754537 23.01807 -2.871232
2006-11-23 08:14:04 51°14.402 2°55.045 -999 2.766221 23.121994 -2.871232
2006-11-23 08:14:09 51°14.415 2°55.034 -999 2.766221 23.121994 -2.871232
2006-11-23 08:14:14 51°14.429 2°55.022 -999 2.792897 23.363921 -2.871232
2006-11-23 08:14:19 51°14.442 2°55.012 -999 2.824881 -999 -2.871232
2006-11-23 08:14:23 51°14.453 2°55.003 -999 2.862594 23.986025 -2.871232
2006-11-23 08:14:29 51°14.47 2°54.99 -999 2.894137 24.273036 -2.871232
2006-11-23 08:14:34 51°14.485 2°54.979 -999 2.934191 -999 -2.871232
2006-11-23 08:14:38 51°14.496 2°54.969 -999 2.934191 -999 -2.871232
2006-11-23 08:14:44 51°14.514 2°54.956 -999 2.967469 24.945491 -2.871232
2006-11-23 08:14:49 51°14.528 2°54.944 -999 3.021261 25.437647 -2.871232
2006-11-23 08:14:54 51°14.543 2°54.933 -999 3.071645 25.896422 -2.871232
2006-11-23 08:14:59 51°14.558 2°54.92 -999 3.118206 26.323587 -2.871232
2006-11-23 08:15:03 51°14.57 2°54.911 -999 3.165185 26.752663 -2.871232
2006-11-23 08:15:09 51°14.587 2°54.896 -999 3.165185 26.752663 -2.871232
2006-11-23 08:15:14 51°14.602 2°54.883 -999 3.196231 27.029924 -2.871232
2006-11-23 08:15:19 51°14.616 2°54.869 -999 3.257192 27.586734 -2.871232
2006-11-23 08:15:24 51°14.63 2°54.855 -999 0.100495 0.666275 -2.871232
2006-11-23 08:15:29 51°14.644 2°54.841 -999 3.292696 27.888079 -2.871232
2006-11-23 08:15:34 51°14.658 2°54.827 -999 3.370959 28.607136 -2.871232
2006-11-23 08:15:39 51°14.672 2°54.813 -999 3.370959 28.607136 -2.871232
2006-11-23 08:15:43 51°14.683 2°54.801 -999 3.419 29.046096 -2.871232
2006-11-23 08:15:49 51°14.7 2°54.784 -999 3.473882 29.552347 -2.871232
2006-11-23 08:15:54 51°14.714 2°54.77 -999 3.531359 30.081722 -2.871232
2006-11-23 08:15:59 51°14.728 2°54.756 -999 3.601688 30.731429 -2.871232
2006-11-23 08:16:03 51°14.74 2°54.745 -999 3.639602 31.07546 -2.871232
2006-11-23 08:16:09 51°14.757 2°54.728 -999 3.639602 31.07546 -2.871232
2006-11-23 08:16:14 51°14.771 2°54.714 -999 3.672961 31.376459 -2.871232
2006-11-23 08:16:18 51°14.782 2°54.703 -999 3.696894 31.589604 -2.871232
2006-11-23 08:16:24 51°14.799 2°54.686 -999 3.719688 31.794352 -2.871232
2006-11-23 08:16:29 51°14.814 2°54.672 -999 3.721139 31.795395 -2.871232
2006-11-23 08:16:34 51°14.828 2°54.657 -999 3.738339 31.946131 -2.871232
2006-11-23 08:16:39 51°14.843 2°54.642 -999 3.738339 31.946131 -2.871232
2006-11-23 08:16:44 51°14.858 2°54.628 -999 3.74725 32.018043 -2.871232
2006-11-23 08:16:49 51°14.873 2°54.613 -999 3.734919 31.888867 -2.871232
2006-11-23 08:16:54 51°14.889 2°54.598 -999 3.737199 31.899347 -2.871232
2006-11-23 08:16:59 51°14.904 2°54.583 -999 3.752949 32.038549 -2.871232
2006-11-23 08:17:04 51°14.919 2°54.569 -999 3.752223 32.02365 -2.871232
2006-11-23 08:17:09 51°14.934 2°54.554 -999 3.752223 32.02365 -2.871232
2006-11-23 08:17:14 51°14.95 2°54.539 -999 3.760513 32.092763 -2.871232
2006-11-23 08:17:19 51°14.965 2°54.525 -999 -999 -999 -2.871232
2006-11-23 08:17:23 51°14.978 2°54.514 -999 3.769528 32.163128 -2.871232
2006-11-23 08:17:29 51°14.996 2°54.495 -999 3.762171 32.086057 -2.871232
2006-11-23 08:17:34 51°15.011 2°54.482 -999 3.772533 32.176396 -2.871232
2006-11-23 08:17:39 51°15.027 2°54.467 -999 3.772533 32.176396 -2.871232
2006-11-23 08:17:43 51°15.04 2°54.456 -999 3.76847 -999 -2.871232
2006-11-23 08:17:49 51°15.058 2°54.438 -999 3.767041 32.108232 -2.871232
2006-11-23 08:17:54 51°15.073 2°54.423 -999 3.771911 32.147217 -2.871232
2006-11-23 08:17:59 51°15.088 2°54.409 -999 3.76331 32.058448 -2.871232
2006-11-23 08:18:04 51°15.103 2°54.393 -999 3.768989 -999 -2.871232
2006-11-23 08:18:09 51°15.118 2°54.376 -999 3.768989 -999 -2.871232
2006-11-23 08:18:14 51°15.133 2°54.36 -999 3.771911 32.126378 -2.871232
2006-11-23 08:18:19 51°15.147 2°54.343 -999 3.776781 32.164533 -2.871232
2006-11-23 08:18:24 51°15.162 2°54.327 -999 3.758833 -999 -2.871232
2006-11-23 08:18:29 51°15.177 2°54.311 -999 3.768801 32.076917 -2.871232
2006-11-23 08:18:34 51°15.192 2°54.296 -999 3.772946 32.110583 -2.871232
2006-11-23 08:18:39 51°15.208 2°54.282 -999 3.772946 32.110583 -2.871232
2006-11-23 08:18:44 51°15.224 2°54.267 -999 3.781444 32.184674 -2.871232
2006-11-23 08:18:49 51°15.24 2°54.255 -999 3.787351 32.234218 -2.871232
2006-11-23 08:18:54 51°15.257 2°54.24 -999 3.782791 32.183009 -2.871232
2006-11-23 08:18:59 51°15.273 2°54.229 -999 3.788594 32.229948 -2.871232
2006-11-23 08:19:03 51°15.286 2°54.218 -999 3.781962 32.160747 -2.871232
2006-11-23 08:19:09 51°15.306 2°54.203 -999 3.781962 32.160747 -2.871232
2006-11-23 08:19:14 51°15.322 2°54.189 -999 3.787765 32.20847 -2.871232
2006-11-23 08:19:19 51°15.338 2°54.175 -999 3.779682 32.124781 -2.871232
2006-11-23 08:19:23 51°15.351 2°54.163 -999 3.786521 32.183089 -2.871232
2006-11-23 08:19:29 51°15.37 2°54.144 -999 3.802584 32.328679 -2.871232
2006-11-23 08:19:34 51°15.386 2°54.129 -999 3.789837 32.201654 -2.871232
2006-11-23 08:19:39 51°15.402 2°54.111 -999 3.789837 32.201654 -2.871232
2006-11-23 08:19:43 51°15.414 2°54.098 -999 3.795744 32.248714 -2.871232
2006-11-23 08:19:49 51°15.432 2°54.078 -999 3.797402 32.257183 -2.871232
2006-11-23 08:19:54 51°15.447 2°54.062 -999 3.803309 32.30663 -2.871232
2006-11-23 08:19:59 51°15.464 2°54.045 -999 3.799371 32.258173 -2.871232
2006-11-23 08:20:03 51°15.476 2°54.032 -999 3.801961 32.272247 -2.871232
2006-11-23 08:20:09 51°15.495 2°54.013 -999 3.801961 32.272247 -2.871232
2006-11-23 08:20:14 51°15.511 2°53.996 -999 3.809423 32.332339 -2.871232
2006-11-23 08:20:19 51°15.527 2°53.981 -999 3.806625 32.295481 -2.871232
2006-11-23 08:20:23 51°15.54 2°53.968 -999 3.824139 32.452125 -2.871232
2006-11-23 08:20:29 51°15.56 2°53.949 -999 3.822999 32.433309 -2.871232
2006-11-23 08:20:34 51°15.575 2°53.934 -999 3.812946 32.32874 -2.871232
2006-11-23 08:20:39 51°15.591 2°53.919 -999 3.812946 32.32874 -2.871232
2006-11-23 08:20:43 51°15.604 2°53.907 -999 3.816573 32.355768 -2.871232
2006-11-23 08:20:49 51°15.623 2°53.889 -999 3.816573 32.355768 -2.871232
2006-11-23 08:20:54 51°15.64 2°53.873 -999 3.816573 32.355768 -2.871232
2006-11-23 08:20:59 51°15.656 2°53.858 -999 3.821755 32.411114 -2.871232
2006-11-23 08:21:04 51°15.672 2°53.841 -999 3.816262 32.371282 -2.871232
2006-11-23 08:21:09 51°15.688 2°53.826 -999 3.816262 32.371282 -2.871232
2006-11-23 08:21:14 51°15.703 2°53.81 -999 3.809837 32.327433 -2.871232
2006-11-23 08:21:19 51°15.72 2°53.794 -999 3.810978 32.35827 -2.871232
2006-11-23 08:21:23 51°15.732 2°53.78 -999 3.801651 32.283733 -2.871232
2006-11-23 08:21:29 51°15.751 2°53.762 -999 3.787557 32.167299 -2.871232
2006-11-23 08:21:34 51°15.768 2°53.745 -999 3.803517 32.336703 -2.871232
2006-11-23 08:21:39 51°15.784 2°53.73 -999 3.803517 32.336703 -2.871232
2006-11-23 08:21:44 51°15.799 2°53.714 -999 3.793257 32.250837 -2.871232
2006-11-23 08:21:49 51°15.816 2°53.697 -999 3.792532 32.250387 -2.871232
2006-11-23 08:21:54 51°15.832 2°53.681 -999 3.797506 32.30391 -2.871232
2006-11-23 08:21:59 51°15.848 2°53.666 -999 3.794397 32.280895 -2.871232
2006-11-23 08:22:03 51°15.861 2°53.652 -999 3.787661 32.227533 -2.871232
2006-11-23 08:22:09 51°15.88 2°53.633 -999 3.787661 32.227533 -2.871232
2006-11-23 08:22:14 51°15.896 2°53.616 -999 3.766521 32.028991 -2.871232
2006-11-23 08:22:19 51°15.911 2°53.601 -999 3.793672 32.288488 -2.871232
2006-11-23 08:22:24 51°15.928 2°53.584 -999 3.798646 32.334015 -2.871232
2006-11-23 08:22:29 51°15.942 2°53.568 -999 3.797506 32.321603 -2.871232
2006-11-23 08:22:34 51°15.959 2°53.552 -999 3.799372 32.336059 -2.871232
2006-11-23 08:22:39 51°15.975 2°53.535 -999 3.799372 32.336059 -2.871232
2006-11-23 08:22:44 51°15.991 2°53.519 -999 3.799475 32.333016 -2.871232
2006-11-23 08:22:49 51°16.007 2°53.504 -999 3.795744 32.292047 -2.871232
2006-11-23 08:22:54 51°16.022 2°53.488 -999 3.803517 32.35923 -2.871232
2006-11-23 08:22:59 51°16.038 2°53.471 -999 3.806108 32.376523 -2.871232
2006-11-23 08:23:04 51°16.054 2°53.455 -999 3.804657 32.354734 135.202477
2006-11-23 08:23:09 51°16.07 2°53.439 -999 3.804657 32.354734 135.202477
2006-11-23 08:23:14 51°16.086 2°53.424 -999 3.809009 32.387895 -2.871232
2006-11-23 08:23:19 51°16.102 2°53.407 -999 3.807662 32.36468 -2.871232
2006-11-23 08:23:23 51°16.115 2°53.394 -999 3.811289 32.390155 -2.871232
2006-11-23 08:23:29 51°16.134 2°53.375 -999 3.803723 32.308143 -2.871232
2006-11-23 08:23:34 51°16.15 2°53.359 -999 3.81832 -999 -2.871232
2006-11-23 08:23:39 51°16.166 2°53.343 -999 3.81832 -999 -2.871232
2006-11-23 08:23:44 51°16.182 2°53.327 -999 3.818958 32.43292 -2.871232
2006-11-23 08:23:49 51°16.199 2°53.312 -999 -999 -999 -2.871232
2006-11-23 08:23:54 51°16.214 2°53.295 -999 3.82217 32.441562 -2.871232
2006-11-23 08:23:59 51°16.23 2°53.28 -999 3.828803 32.492173 -2.871232
2006-11-23 08:24:04 51°16.246 2°53.264 -999 3.826212 32.453203 -2.871232
2006-11-23 08:24:09 51°16.262 2°53.248 -999 3.826212 32.453203 -2.871232
2006-11-23 08:24:14 51°16.278 2°53.231 -999 3.830046 32.474134 -2.871232
2006-11-23 08:24:19 51°16.293 2°53.216 -999 3.833155 32.489008 -2.871232
2006-11-23 08:24:23 51°16.306 2°53.203 -999 3.838959 32.526887 -2.871232
2006-11-23 08:24:29 51°16.326 2°53.183 -999 3.839166 32.511947 -2.871232
2006-11-23 08:24:34 51°16.342 2°53.167 -999 3.844451 32.548121 -2.871232
2006-11-23 08:24:39 51°16.357 2°53.152 -999 3.844451 32.548121 -2.871232
2006-11-23 08:24:44 51°16.374 2°53.136 -999 -999 -999 -2.871232
2006-11-23 08:24:49 51°16.39 2°53.121 -999 3.853883 32.615305 -2.871232
2006-11-23 08:24:54 51°16.405 2°53.105 -999 3.853675 32.607712 -2.871232
2006-11-23 08:24:59 51°16.422 2°53.089 -999 3.856163 32.626323 -2.871232
2006-11-23 08:25:03 51°16.434 2°53.076 -999 3.859687 32.652281 -2.871232
2006-11-23 08:25:09 51°16.454 2°53.058 -999 3.859687 32.652281 -2.871232
2006-11-23 08:25:14 51°16.469 2°53.043 -999 3.856681 32.616707 -2.871232
2006-11-23 08:25:19 51°16.485 2°53.027 -999 3.858235 32.625716 -2.871232
2006-11-23 08:25:24 51°16.501 2°53.012 -999 3.85751 32.614052 -2.871232
2006-11-23 08:25:29 51°16.518 2°52.997 -999 3.86321 32.662106 -2.871232
2006-11-23 08:25:34 51°16.534 2°52.981 -999 3.868704 32.70901 -2.871232
2006-11-23 08:25:39 51°16.55 2°52.966 -999 3.868704 32.70901 -2.871232
2006-11-23 08:25:44 51°16.566 2°52.951 -999 3.866734 32.681591 -2.871232
2006-11-23 08:25:49 51°16.582 2°52.936 -999 3.866941 32.677096 -2.871232
2006-11-23 08:25:54 51°16.598 2°52.92 -999 3.870051 32.69589 -2.871232
2006-11-23 08:25:59 51°16.614 2°52.905 -999 3.864764 32.635682 -2.871232
2006-11-23 08:26:04 51°16.63 2°52.892 -999 3.87202 32.691058 -2.871232
2006-11-23 08:26:09 51°16.647 2°52.877 -999 3.87202 32.691058 -2.871232
2006-11-23 08:26:14 51°16.662 2°52.864 -999 3.87202 32.691058 -2.871232
2006-11-23 08:26:19 51°16.679 2°52.85 -999 3.87202 32.691058 -2.871232
2006-11-23 08:26:23 51°16.692 2°52.839 -999 3.87772 32.710043 -2.871232
2006-11-23 08:26:29 51°16.711 2°52.822 -999 3.874403 32.666013 -2.871232
2006-11-23 08:26:34 51°16.727 2°52.808 -999 3.878549 32.692097 -2.871232
2006-11-23 08:26:39 51°16.744 2°52.794 -999 3.878549 32.692097 -2.871232
2006-11-23 08:26:43 51°16.756 2°52.783 -999 3.882487 32.715418 -2.871232
2006-11-23 08:26:49 51°16.775 2°52.767 -999 3.876372 32.646777 -2.871232
2006-11-23 08:26:54 51°16.791 2°52.752 -999 3.881243 32.682859 -2.871232
2006-11-23 08:26:59 51°16.806 2°52.738 -999 3.873677 32.600671 -2.871232
2006-11-23 08:27:04 51°16.821 2°52.724 -999 3.873365 32.584959 -2.871232
2006-11-23 08:27:09 51°16.838 2°52.709 -999 3.873365 32.584959 -2.871232
2006-11-23 08:27:14 51°16.853 2°52.696 -999 3.886011 32.692276 -2.871232
2006-11-23 08:27:19 51°16.869 2°52.681 -999 3.887047 32.695577 -2.871232
2006-11-23 08:27:24 51°16.884 2°52.668 -999 3.884559 32.666655 -2.871232
2006-11-23 08:27:29 51°16.9 2°52.654 -999 3.885285 32.664644 -2.871232
2006-11-23 08:27:34 51°16.916 2°52.64 -999 3.887047 32.673142 -2.871232
2006-11-23 08:27:39 51°16.932 2°52.626 -999 3.887047 32.673142 -2.871232
2006-11-23 08:27:44 51°16.948 2°52.612 -999 3.884663 32.643615 -2.871232
2006-11-23 08:27:49 51°16.964 2°52.599 -999 3.881553 32.610508 -2.871232
2006-11-23 08:27:54 51°16.98 2°52.585 -999 3.88715 32.658907 -2.871232
2006-11-23 08:27:59 51°16.996 2°52.573 -999 3.881138 32.601037 -2.871232
2006-11-23 08:28:03 51°17.01 2°52.564 -999 3.892022 32.699713 -2.871232
2006-11-23 08:28:08 51°17.028 2°52.555 -999 3.892022 32.699713 -2.871232
2006-11-23 08:28:14 51°17.048 2°52.544 -999 3.888083 32.660441 -2.871232
2006-11-23 08:28:19 51°17.065 2°52.536 -999 3.87523 32.53619 -2.871232
2006-11-23 08:28:24 51°17.082 2°52.53 -999 3.890674 32.677495 -2.871232
2006-11-23 08:28:29 51°17.1 2°52.526 -999 3.890674 32.673495 -2.871232
2006-11-23 08:28:34 51°17.118 2°52.522 -999 3.888394 32.648161 -2.871232
2006-11-23 08:28:39 51°17.135 2°52.517 -999 3.888394 32.648161 -2.871232
2006-11-23 08:28:43 51°17.15 2°52.515 -999 3.887357 32.636068 -2.871232
2006-11-23 08:28:49 51°17.171 2°52.512 -999 3.887979 32.640288 -2.871232
2006-11-23 08:28:54 51°17.189 2°52.509 -999 3.882693 32.588452 -2.871232
2006-11-23 08:28:59 51°17.207 2°52.508 -999 3.886217 32.619814 -2.871232
2006-11-23 08:29:03 51°17.221 2°52.505 -999 3.882485 32.584122 -2.871232
2006-11-23 08:29:09 51°17.243 2°52.503 -999 3.882485 32.584122 -2.871232
2006-11-23 08:29:14 51°17.261 2°52.5 -999 3.891089 32.662983 -2.871232
2006-11-23 08:29:19 51°17.278 2°52.497 -999 3.882278 32.579792 -2.871232
2006-11-23 08:29:24 51°17.297 2°52.494 -999 3.890467 32.655568 -2.871232
2006-11-23 08:29:29 51°17.315 2°52.491 -999 3.891918 32.668342 -2.871232
2006-11-23 08:29:34 51°17.332 2°52.487 -999 3.89368 32.684024 -2.871232
2006-11-23 08:29:39 51°17.351 2°52.484 -999 3.89368 32.684024 -2.871232
2006-11-23 08:29:44 51°17.369 2°52.479 -999 3.885595 32.608413 -2.871232
2006-11-23 08:29:49 51°17.387 2°52.475 -999 3.889119 32.64057 -2.871232
2006-11-23 08:29:54 51°17.405 2°52.47 -999 3.892125 32.667883 -2.871232
2006-11-23 08:29:59 51°17.422 2°52.466 -999 3.889948 32.645929 -2.871232
2006-11-23 08:30:03 51°17.437 2°52.461 -999 3.889948 32.64513 -2.871232
2006-11-23 08:30:08 51°17.454 2°52.458 -999 3.889948 32.64513 -2.871232
2006-11-23 08:30:14 51°17.476 2°52.452 -999 3.884455 32.592968 -2.871232
2006-11-23 08:30:19 51°17.494 2°52.449 -999 3.892747 32.669703 -2.871232
2006-11-23 08:30:24 51°17.512 2°52.446 -999 3.886528 32.612349 -2.871232
2006-11-23 08:30:29 51°17.53 2°52.442 -999 3.890881 32.655451 -2.871232
2006-11-23 08:30:34 51°17.548 2°52.441 -999 3.88715 32.621355 -2.871232
2006-11-23 08:30:39 51°17.567 2°52.438 -999 3.88715 32.621355 -2.871232
2006-11-23 08:30:44 51°17.584 2°52.437 -999 3.886735 32.617479 -2.871232
2006-11-23 08:30:49 51°17.602 2°52.436 -999 3.884766 32.60066 -2.871232
2006-11-23 08:30:54 51°17.62 2°52.434 -999 3.891089 32.661385 -2.871232
2006-11-23 08:30:59 51°17.638 2°52.434 -999 3.887875 32.633728 -2.871232
2006-11-23 08:31:04 51°17.656 2°52.432 -999 3.892747 32.681695 -2.871232
2006-11-23 08:31:09 51°17.674 2°52.43 -999 3.892747 32.681695 -2.871232
2006-11-23 08:31:14 51°17.692 2°52.43 -999 3.884455 32.605729 -2.871232
2006-11-23 08:31:19 51°17.71 2°52.429 -999 3.89368 32.695223 -2.871232
2006-11-23 08:31:24 51°17.728 2°52.43 -999 3.888083 32.645252 -2.871232
2006-11-23 08:31:29 51°17.746 2°52.429 -999 3.878754 32.56198 -2.871232
2006-11-23 08:31:34 51°17.764 2°52.429 -999 3.872017 32.501363 -2.871232
2006-11-23 08:31:39 51°17.782 2°52.429 -999 3.872017 32.501363 -2.871232
2006-11-23 08:31:44 51°17.799 2°52.431 -999 3.880102 32.578571 -2.871232
2006-11-23 08:31:49 51°17.818 2°52.433 -999 3.889431 32.667454 -2.871232
2006-11-23 08:31:54 51°17.836 2°52.435 -999 3.874816 32.533905 -2.871232
2006-11-23 08:31:59 51°17.854 2°52.437 -999 3.87181 32.508178 -2.871232
2006-11-23 08:32:04 51°17.871 2°52.441 -999 3.891711 32.697602 -2.871232
2006-11-23 08:32:09 51°17.889 2°52.443 -999 3.891711 32.697602 -2.871232
2006-11-23 08:32:14 51°17.907 2°52.447 -999 3.889949 32.681906 -2.871232
2006-11-23 08:32:19 51°17.925 2°52.449 -999 3.88798 32.66587 -2.871232
2006-11-23 08:32:24 51°17.942 2°52.453 -999 3.892955 32.714856 -2.871232
2006-11-23 08:32:29 51°17.96 2°52.456 -999 3.884559 32.641045 -2.871232
2006-11-23 08:32:34 51°17.978 2°52.461 -999 3.893577 32.727895 -2.871232
2006-11-23 08:32:39 51°17.996 2°52.464 -999 3.893577 32.727895 -2.871232
2006-11-23 08:32:43 51°18.01 2°52.468 -999 3.892748 32.724137 -2.871232
2006-11-23 08:32:49 51°18.031 2°52.477 -999 3.891608 32.716664 -2.871232
2006-11-23 08:32:54 51°18.048 2°52.483 -999 3.888913 32.694623 -2.871232
2006-11-23 08:32:59 51°18.065 2°52.494 -999 3.887151 32.682122 -2.871232
2006-11-23 08:33:04 51°18.082 2°52.505 -999 3.893059 32.742295 -2.871232
2006-11-23 08:33:09 51°18.097 2°52.519 -999 3.893059 32.742295 -2.871232
2006-11-23 08:33:14 51°18.113 2°52.532 -999 3.890053 32.716531 -2.871232
2006-11-23 08:33:19 51°18.127 2°52.548 -999 3.885389 32.675226 -2.871232
2006-11-23 08:33:24 51°18.142 2°52.565 -999 3.884145 32.665173 -2.871232
2006-11-23 08:33:29 51°18.155 2°52.583 -999 3.890675 32.729581 -2.871232
2006-11-23 08:33:34 51°18.169 2°52.6 -999 3.892126 32.746397 -2.871232
2006-11-23 08:33:39 51°18.182 2°52.62 -999 3.892126 32.746397 -2.871232
2006-11-23 08:33:44 51°18.196 2°52.638 -999 3.88373 32.670901 -2.871232
2006-11-23 08:33:49 51°18.208 2°52.658 -999 3.89223 32.754599 -2.871232
2006-11-23 08:33:54 51°18.221 2°52.678 -999 3.891608 32.751981 -2.871232
2006-11-23 08:33:59 51°18.233 2°52.698 -999 3.884974 32.692183 -2.871232
2006-11-23 08:34:04 51°18.245 2°52.718 -999 3.88798 32.722778 -2.871232
2006-11-23 08:34:09 51°18.256 2°52.739 -999 3.88798 32.722778 -2.871232
2006-11-23 08:34:14 51°18.269 2°52.76 -999 3.880725 32.657147 -2.871232
2006-11-23 08:34:19 51°18.283 2°52.78 -999 3.884974 32.699404 -2.871232
2006-11-23 08:34:23 51°18.294 2°52.796 -999 3.894096 32.786575 -2.871232
2006-11-23 08:34:29 51°18.309 2°52.818 -999 3.882901 32.681567 -2.871232
2006-11-23 08:34:34 51°18.322 2°52.838 -999 3.88767 32.726286 -2.871232
2006-11-23 08:34:39 51°18.335 2°52.858 -999 3.88767 32.726286 -2.871232
2006-11-23 08:34:43 51°18.347 2°52.872 -999 3.8715 32.575466 -2.871232
2006-11-23 08:34:49 51°18.361 2°52.897 -999 3.880517 32.660012 -2.871232
2006-11-23 08:34:54 51°18.374 2°52.917 -999 3.874298 32.601701 -2.871232
2006-11-23 08:34:59 51°18.388 2°52.935 -999 3.887566 32.726117 -2.871232
2006-11-23 08:35:04 51°18.403 2°52.953 -999 3.887877 32.729034 -2.871232
2006-11-23 08:35:09 51°18.418 2°52.968 -999 3.887877 32.729034 -2.871232
2006-11-23 08:35:14 51°18.431 2°52.988 -999 3.884975 32.701811 -2.871232
2006-11-23 08:35:19 51°18.446 2°53.003 -999 3.879585 32.652066 -2.871232
2006-11-23 08:35:23 51°18.456 2°53.021 -999 3.887877 32.730641 -2.871232
2006-11-23 08:35:29 51°18.474 2°53.04 -999 3.876682 32.626454 -2.871232
2006-11-23 08:35:34 51°18.486 2°53.062 -999 3.890779 32.757868 -2.871232
2006-11-23 08:35:39 51°18.501 2°53.079 -999 3.890779 32.757868 -2.871232
2006-11-23 08:35:44 51°18.514 2°53.098 -999 3.889846 32.748312 -2.871232
2006-11-23 08:35:49 51°18.529 2°53.116 -999 3.888913 32.738757 -2.871232
2006-11-23 08:35:54 51°18.544 2°53.132 -999 3.879066 32.645603 -2.871232
2006-11-23 08:35:59 51°18.558 2°53.15 -999 3.892956 32.775877 -2.871232
2006-11-23 08:36:04 51°18.571 2°53.168 -999 3.894096 32.788185 -2.871232
2006-11-23 08:36:09 51°18.585 2°53.187 -999 3.894096 32.788185 -2.871232
2006-11-23 08:36:14 51°18.597 2°53.207 -999 -999 -999 -2.871232
2006-11-23 08:36:19 51°18.61 2°53.228 -999 3.865799 32.525228 -2.871232
2006-11-23 08:36:24 51°18.625 2°53.242 -999 3.889017 32.744552 -2.871232
2006-11-23 08:36:29 51°18.636 2°53.265 -999 3.897413 32.82495 -2.871232
2006-11-23 08:36:34 51°18.652 2°53.279 -999 3.898242 32.832733 -2.871232
2006-11-23 08:36:39 51°18.664 2°53.3 -999 3.898242 32.832733 -2.871232
2006-11-23 08:36:43 51°18.676 2°53.313 -999 3.898139 32.834178 -2.871232
2006-11-23 08:36:49 51°18.694 2°53.333 -999 3.898346 32.837737 -2.871232
2006-11-23 08:36:54 51°18.707 2°53.351 -999 3.898139 32.834985 -2.871232
2006-11-23 08:36:59 51°18.722 2°53.366 -999 3.898035 32.834818 -2.871232
2006-11-23 08:37:04 51°18.735 2°53.385 -999 3.898035 32.835624 -2.871232
2006-11-23 08:37:09 51°18.75 2°53.399 -999 3.898035 32.835624 -2.871232
2006-11-23 08:37:14 51°18.762 2°53.419 -999 3.897932 32.834651 -2.871232
2006-11-23 08:37:19 51°18.777 2°53.434 -999 3.897724 32.833511 -2.871232
2006-11-23 08:37:23 51°18.786 2°53.45 -999 3.897621 32.834151 -2.871232
2006-11-23 08:37:29 51°18.803 2°53.471 -999 3.898035 32.838849 -2.871232
2006-11-23 08:37:34 51°18.817 2°53.488 -999 3.898139 32.839016 -2.871232
2006-11-23 08:37:39 51°18.832 2°53.504 -999 3.898139 32.839016 -2.871232
2006-11-23 08:37:43 51°18.843 2°53.516 -999 3.898243 32.839989 -2.871232
2006-11-23 08:37:49 51°18.861 2°53.536 -999 3.897932 32.83707 -2.871232
2006-11-23 08:37:54 51°18.876 2°53.551 -999 3.898139 32.83821 -2.871232
2006-11-23 08:37:59 51°18.89 2°53.569 -999 3.897828 32.836903 -2.871232
2006-11-23 08:38:04 51°18.905 2°53.584 -999 3.897621 32.83657 -2.871232
2006-11-23 08:38:09 51°18.918 2°53.602 -999 3.897621 32.83657 -2.871232
2006-11-23 08:38:14 51°18.933 2°53.619 -999 3.897621 32.837376 -2.871232
2006-11-23 08:38:19 51°18.947 2°53.637 -999 3.897828 32.840129 -2.871232
2006-11-23 08:38:24 51°18.962 2°53.652 -999 3.898035 32.842076 -2.871232
2006-11-23 08:38:29 51°18.975 2°53.671 -999 3.898139 32.844662 -2.871232
2006-11-23 08:38:34 51°18.99 2°53.685 -999 3.898064 23.55002 -2.871232
2006-11-23 08:38:39 51°19.004 2°53.704 -999 3.898064 23.55002 -2.871232
2006-11-23 08:38:44 51°19.019 2°53.719 -999 3.898243 32.848863 -2.871232
2006-11-23 08:38:49 51°19.032 2°53.739 -999 3.898139 32.849503 -2.871232
2006-11-23 08:38:54 51°19.047 2°53.754 -999 3.898346 32.853064 -2.871232
2006-11-23 08:38:59 51°19.061 2°53.773 -999 3.898243 32.852898 -2.871232
2006-11-23 08:39:04 51°19.075 2°53.789 -999 3.898243 32.854512 -2.871232
2006-11-23 08:39:09 51°19.09 2°53.805 -999 3.898243 32.854512 -2.871232
2006-11-23 08:39:14 51°19.104 2°53.821 -999 3.898346 32.855486 -2.871232
2006-11-23 08:39:19 51°19.119 2°53.838 -999 3.898139 32.854346 -2.871232
2006-11-23 08:39:23 51°19.131 2°53.851 -999 3.898243 32.856126 -2.871232
2006-11-23 08:39:29 51°19.148 2°53.871 -999 3.898243 32.856934 -2.871232
2006-11-23 08:39:34 51°19.163 2°53.886 -999 3.897828 32.853846 -2.871232
2006-11-23 08:39:39 51°19.178 2°53.903 -999 3.897828 32.853846 -2.871232
2006-11-23 08:39:43 51°19.19 2°53.915 -999 3.897932 32.856435 -2.871232
2006-11-23 08:39:49 51°19.209 2°53.934 -999 3.898243 32.860971 -2.871232
2006-11-23 08:39:54 51°19.224 2°53.952 -999 3.898139 32.859997 -2.871232
2006-11-23 08:39:59 51°19.239 2°53.965 -999 3.898243 32.860971 -2.871232
2006-11-23 08:40:04 51°19.252 2°53.984 -999 3.898139 32.861612 -2.871232
2006-11-23 08:40:09 51°19.268 2°53.999 -999 3.898139 32.861612 -2.871232
2006-11-23 08:40:14 51°19.281 2°54.018 -999 3.898243 32.862586 -2.871232
2006-11-23 08:40:19 51°19.295 2°54.037 -999 3.89845 32.865341 -2.871232
2006-11-23 08:40:23 51°19.306 2°54.05 -999 3.898347 32.864367 -2.871232
2006-11-23 08:40:29 51°19.322 2°54.074 -999 3.898139 32.86242 -2.871232
2006-11-23 08:40:34 51°19.338 2°54.087 -999 3.898761 32.867455 -2.871232
2006-11-23 08:40:39 51°19.35 2°54.109 -999 3.898761 32.867455 -2.871232
2006-11-23 08:40:44 51°19.365 2°54.125 -999 3.898968 32.869403 -2.871232
2006-11-23 08:40:49 51°19.378 2°54.144 -999 3.899072 32.871992 -2.871232
2006-11-23 08:40:54 51°19.392 2°54.162 -999 3.899072 32.8728 -2.871232
2006-11-23 08:40:59 51°19.406 2°54.182 -999 3.899072 32.873608 -2.871232
2006-11-23 08:41:04 51°19.419 2°54.2 -999 3.899072 32.874416 -2.871232
2006-11-23 08:41:09 51°19.431 2°54.222 -999 3.899072 32.874416 -2.871232
2006-11-23 08:41:14 51°19.446 2°54.24 -999 3.899176 32.87539 -2.871232
2006-11-23 08:41:19 51°19.46 2°54.259 -999 3.89928 32.876364 -2.871232
2006-11-23 08:41:24 51°19.474 2°54.277 -999 3.89928 32.877172 -2.871232
2006-11-23 08:41:29 51°19.488 2°54.294 -999 3.89928 32.877172 -2.871232
2006-11-23 08:41:34 51°19.502 2°54.313 -999 3.899072 32.87684 -2.871232
2006-11-23 08:41:39 51°19.516 2°54.33 -999 3.899072 32.87684 -2.871232
2006-11-23 08:41:44 51°19.53 2°54.349 -999 3.898969 32.877482 -2.871232
2006-11-23 08:41:49 51°19.543 2°54.369 -999 3.898865 32.878125 -2.871232
2006-11-23 08:41:54 51°19.557 2°54.387 -999 3.898761 32.877959 -2.871232
2006-11-23 08:41:59 51°19.57 2°54.407 -999 3.898865 32.879741 -2.871232
2006-11-23 08:42:03 51°19.581 2°54.422 -999 3.898969 32.879907 -2.871232
2006-11-23 08:42:09 51°19.597 2°54.443 -999 3.898969 32.879907 -2.871232
2006-11-23 08:42:14 51°19.61 2°54.461 -999 3.899072 32.880881 -2.871232
2006-11-23 08:42:19 51°19.625 2°54.478 -999 3.899072 32.880881 -2.871232
2006-11-23 08:42:24 51°19.638 2°54.497 -999 3.899176 32.882664 -2.871232
2006-11-23 08:42:29 51°19.653 2°54.513 -999 3.899176 32.885089 -2.871232
2006-11-23 08:42:34 51°19.665 2°54.533 -999 3.899176 32.885089 -2.871232
2006-11-23 08:42:39 51°19.68 2°54.55 -999 3.899176 32.885089 -2.871232
2006-11-23 08:42:44 51°19.694 2°54.569 -999 3.899072 32.885732 -2.871232
2006-11-23 08:42:49 51°19.707 2°54.588 -999 3.899072 32.887349 -2.871232
2006-11-23 08:42:54 51°19.72 2°54.607 -999 3.899072 32.888158 -2.871232
2006-11-23 08:42:59 51°19.734 2°54.626 -999 3.898969 32.886375 -2.871232
2006-11-23 08:43:04 51°19.747 2°54.646 -999 3.898969 32.887183 -2.871232
2006-11-23 08:43:09 51°19.76 2°54.665 -999 3.898969 32.887183 -2.871232
2006-11-23 08:43:14 51°19.773 2°54.685 -999 3.898969 32.887992 -2.871232
2006-11-23 08:43:19 51°19.787 2°54.704 -999 3.898865 32.887018 -2.871232
2006-11-23 08:43:23 51°19.798 2°54.718 -999 3.898865 32.887826 -2.871232
2006-11-23 08:43:29 51°19.815 2°54.74 -999 3.898761 32.889278 -2.871232
2006-11-23 08:43:34 51°19.83 2°54.755 -999 3.898554 32.888947 -2.871232
2006-11-23 08:43:39 51°19.843 2°54.775 -999 3.898554 32.888947 -2.871232
2006-11-23 08:43:43 51°19.856 2°54.786 -999 3.898451 32.888781 -2.871232
2006-11-23 08:43:49 51°19.871 2°54.809 -999 3.898243 32.886832 -2.871232
2006-11-23 08:43:54 51°19.886 2°54.824 -999 3.89814 32.886666 -2.871232
2006-11-23 08:43:59 51°19.899 2°54.845 -999 3.89814 32.888284 -2.871232
2006-11-23 08:44:03 51°19.911 2°54.856 -999 3.89814 32.889093 -2.871232
2006-11-23 08:44:09 51°19.926 2°54.881 -999 3.89814 32.889093 -2.871232
2006-11-23 08:44:14 51°19.941 2°54.894 -999 3.897932 32.887953 -2.871232
2006-11-23 08:44:19 51°19.953 2°54.917 -999 3.897621 32.885838 -2.871232
2006-11-23 08:44:24 51°19.969 2°54.929 -999 3.897829 32.887787 -2.871232
2006-11-23 08:44:29 51°19.981 2°54.949 -999 3.896999 32.880798 -2.871232
2006-11-23 08:44:34 51°19.995 2°54.965 -999 3.896999 32.881607 -2.871232
2006-11-23 08:44:39 51°20.008 2°54.982 -999 3.896999 32.881607 -2.871232
2006-11-23 08:44:44 51°20.021 2°55.001 -999 3.896792 32.879658 -2.871232
2006-11-23 08:44:49 51°20.035 2°55.017 -999 3.897103 32.885818 -2.871232
2006-11-23 08:44:54 51°20.047 2°55.036 -999 3.897103 32.8842 -2.871232
2006-11-23 08:44:59 51°20.061 2°55.052 -999 3.896481 32.879969 -2.871232
2006-11-23 08:45:04 51°20.074 2°55.072 -999 3.896792 32.882084 -2.871232
2006-11-23 08:45:09 51°20.089 2°55.088 -999 3.896792 32.882084 -2.871232
2006-11-23 08:45:14 51°20.101 2°55.108 -999 3.89617 32.877045 -2.871232
2006-11-23 08:45:19 51°20.117 2°55.122 -999 3.89617 32.877045 -2.871232
2006-11-23 08:45:24 51°20.129 2°55.142 -999 3.896067 32.877688 -2.871232
2006-11-23 08:45:29 51°20.143 2°55.158 -999 3.896378 32.881421 -2.871232
2006-11-23 08:45:34 51°20.157 2°55.176 -999 3.89617 32.879471 -2.871232
2006-11-23 08:45:39 51°20.171 2°55.195 -999 3.89617 32.879471 -2.871232
2006-11-23 08:45:44 51°20.184 2°55.213 -999 3.895756 32.87719 -2.871232
2006-11-23 08:45:49 51°20.198 2°55.231 -999 3.895756 32.87719 -2.871232
2006-11-23 08:45:53 51°20.208 2°55.247 -999 3.895652 32.877024 -2.871232
2006-11-23 08:45:59 51°20.224 2°55.27 -999 3.895341 32.874908 -2.871232
2006-11-23 08:46:04 51°20.237 2°55.289 -999 3.89503 32.872792 -2.871232
2006-11-23 08:46:09 51°20.25 2°55.31 -999 3.89503 32.872792 -2.871232
2006-11-23 08:46:14 51°20.265 2°55.325 -999 3.895134 32.874576 -2.871232
2006-11-23 08:46:19 51°20.277 2°55.346 -999 3.894512 32.868727 -2.871232
2006-11-23 08:46:24 51°20.293 2°55.361 -999 3.894616 32.87051 -2.871232
2006-11-23 08:46:29 51°20.306 2°55.381 -999 3.894512 32.869535 -2.871232
2006-11-23 08:46:34 51°20.32 2°55.397 -999 3.894408 32.870987 -2.871232
2006-11-23 08:46:39 51°20.333 2°55.416 -999 3.894408 32.870987 -2.871232
2006-11-23 08:46:44 51°20.347 2°55.434 -999 3.894616 32.873746 -2.871232
2006-11-23 08:46:49 51°20.361 2°55.452 -999 3.894408 32.872605 -2.871232
2006-11-23 08:46:54 51°20.375 2°55.471 -999 3.894201 32.869846 -2.871232
2006-11-23 08:46:59 51°20.389 2°55.488 -999 3.894201 32.869846 -2.871232
2006-11-23 08:47:04 51°20.402 2°55.507 -999 3.894305 32.87163 -2.871232
2006-11-23 08:47:09 51°20.415 2°55.527 -999 3.894305 32.87163 -2.871232
2006-11-23 08:47:14 51°20.43 2°55.543 -999 3.893994 32.869514 -2.871232
2006-11-23 08:47:19 51°20.442 2°55.565 -999 3.893579 32.866423 -2.871232
2006-11-23 08:47:24 51°20.457 2°55.582 -999 3.893683 32.867398 -2.871232
2006-11-23 08:47:29 51°20.47 2°55.601 -999 3.893579 32.867231 -2.871232
2006-11-23 08:47:34 51°20.483 2°55.622 -999 3.893372 32.86609 -2.871232
2006-11-23 08:47:39 51°20.497 2°55.64 -999 3.893372 32.86609 -2.871232
2006-11-23 08:47:43 51°20.507 2°55.656 -999 3.893683 32.869016 -2.871232
2006-11-23 08:47:49 51°20.522 2°55.681 -999 3.89275 32.861857 -2.871232
2006-11-23 08:47:54 51°20.537 2°55.698 -999 3.893164 32.864949 -2.871232
2006-11-23 08:47:59 51°20.55 2°55.716 -999 3.892957 32.864617 -2.871232
2006-11-23 08:48:03 51°20.561 2°55.732 -999 3.892646 32.861691 -2.871232
2006-11-23 08:48:09 51°20.579 2°55.752 -999 3.892646 32.861691 -2.871232
2006-11-23 08:48:14 51°20.592 2°55.772 -999 3.892543 32.860716 -2.871232
2006-11-23 08:48:19 51°20.605 2°55.79 -999 3.892232 32.858599 -2.871232
2006-11-23 08:48:24 51°20.618 2°55.81 -999 3.892439 32.862168 -2.871232
2006-11-23 08:48:29 51°20.631 2°55.829 -999 3.891402 32.853224 -2.871232
2006-11-23 08:48:34 51°20.644 2°55.849 -999 3.89161 32.855984 -2.871232
2006-11-23 08:48:39 51°20.66 2°55.864 -999 3.89161 32.855984 -2.871232
2006-11-23 08:48:43 51°20.668 2°55.883 -999 3.891195 32.852083 -2.871232
2006-11-23 08:48:49 51°20.686 2°55.903 -999 3.891506 32.855817 -2.871232
2006-11-23 08:48:53 51°20.695 2°55.92 -999 3.891506 32.856626 -2.871232
2006-11-23 08:48:59 51°20.709 2°55.944 -999 3.890988 32.853368 -2.871232
2006-11-23 08:49:04 51°20.724 2°55.961 -999 3.890884 32.852392 -2.871232
2006-11-23 08:49:09 51°20.736 2°55.981 -999 3.890884 32.852392 -2.871232
2006-11-23 08:49:14 51°20.751 2°55.997 -999 3.89047 32.850109 -2.871232
2006-11-23 08:49:19 51°20.763 2°56.018 -999 3.890781 32.853035 -2.871232
2006-11-23 08:49:24 51°20.776 2°56.036 -999 3.890366 32.850751 -2.871232
2006-11-23 08:49:29 51°20.788 2°56.056 -999 3.890159 32.849609 -2.871232
2006-11-23 08:49:34 51°20.801 2°56.076 -999 3.889744 32.847325 -2.871232
2006-11-23 08:49:39 51°20.813 2°56.096 -999 3.889744 32.847325 -2.871232
2006-11-23 08:49:43 51°20.824 2°56.111 -999 3.889744 32.847325 -2.871232
2006-11-23 08:49:49 51°20.839 2°56.136 -999 3.889329 32.844233 -2.871232
2006-11-23 08:49:54 51°20.852 2°56.155 -999 3.889537 32.846183 -2.871232
2006-11-23 08:49:59 51°20.865 2°56.176 -999 3.88964 32.849586 -2.871232
2006-11-23 08:50:03 51°20.877 2°56.189 -999 3.889019 32.845351 -2.871232
2006-11-23 08:50:09 51°20.892 2°56.214 -999 3.889019 32.845351 -2.871232
2006-11-23 08:50:14 51°20.907 2°56.231 -999 3.889122 32.847944 -2.871232
2006-11-23 08:50:19 51°20.92 2°56.25 -999 3.888915 32.846802 -2.871232
2006-11-23 08:50:24 51°20.933 2°56.27 -999 3.888293 32.842566 -2.871232
2006-11-23 08:50:29 51°20.947 2°56.287 -999 3.888397 32.84516 -2.871232
2006-11-23 08:50:34 51°20.959 2°56.309 -999 3.888086 32.843851 -2.871232
2006-11-23 08:50:39 51°20.974 2°56.326 -999 3.888086 32.843851 -2.871232
2006-11-23 08:50:44 51°20.986 2°56.346 -999 3.887982 32.843685 -2.871232
2006-11-23 08:50:49 51°20.999 2°56.363 -999 3.88736 32.839448 -2.871232
2006-11-23 08:50:54 51°21.011 2°56.385 -999 3.887464 32.840424 -2.871232
2006-11-23 08:50:59 51°21.024 2°56.403 -999 3.887568 32.843018 -2.871232
2006-11-23 08:51:04 51°21.035 2°56.424 -999 3.887568 32.843828 -2.871232
2006-11-23 08:51:09 51°21.048 2°56.442 -999 3.887568 32.843828 -2.871232
2006-11-23 08:51:14 51°21.06 2°56.463 -999 3.887153 32.841543 -2.871232
2006-11-23 08:51:19 51°21.074 2°56.482 -999 3.886635 32.837472 -2.871232
2006-11-23 08:51:24 51°21.084 2°56.505 -999 3.886427 32.837139 -2.871232
2006-11-23 08:51:29 51°21.097 2°56.524 -999 3.886013 32.835663 -2.871232
2006-11-23 08:51:34 51°21.107 2°56.547 -999 3.885806 32.836138 -2.871232
2006-11-23 08:51:39 51°21.12 2°56.567 -999 3.885806 32.836138 -2.871232
2006-11-23 08:51:43 51°21.13 2°56.583 -999 3.885806 32.836948 -2.871232
2006-11-23 08:51:49 51°21.143 2°56.61 -999 3.885598 32.834996 -2.871232
2006-11-23 08:51:54 51°21.156 2°56.629 -999 3.885598 32.835805 -2.871232
2006-11-23 08:51:59 51°21.167 2°56.652 -999 3.88508 32.833352 -2.871232
2006-11-23 08:52:03 51°21.177 2°56.667 -999 3.88508 32.835781 -2.871232
2006-11-23 08:52:09 51°21.19 2°56.694 -999 3.88508 32.835781 -2.871232
2006-11-23 08:52:14 51°21.203 2°56.714 -999 3.884873 32.835447 -2.871232
2006-11-23 08:52:19 51°21.216 2°56.735 -999 3.884147 32.831042 -2.871232
2006-11-23 08:52:24 51°21.226 2°56.758 -999 3.883836 32.83135 -2.871232
2006-11-23 08:52:29 51°21.239 2°56.78 -999 3.883525 32.83085 -2.871232
2006-11-23 08:52:34 51°21.247 2°56.804 -999 3.883836 32.835399 -2.871232
2006-11-23 08:52:39 51°21.256 2°56.829 -999 3.883836 32.835399 -2.871232
2006-11-23 08:52:44 51°21.265 2°56.853 -999 3.883215 32.831159 -2.871232
2006-11-23 08:52:49 51°21.275 2°56.876 -999 3.8828 32.827253 -2.871232
2006-11-23 08:52:54 51°21.283 2°56.899 -999 3.882385 32.823347 -2.871232
2006-11-23 08:52:58 51°21.291 2°56.918 -999 3.882696 32.827086 -2.871232
2006-11-23 08:53:05 51°21.306 2°56.951 -999 3.882282 32.825609 -2.871232
2006-11-23 08:53:09 51°21.313 2°56.97 -999 3.882282 32.825609 -2.871232
2006-11-23 08:53:14 51°21.322 2°56.994 -999 3.881764 32.824774 -2.871232
2006-11-23 08:53:19 51°21.332 2°57.018 -999 3.88166 32.827036 -2.871232
2006-11-23 08:53:24 51°21.341 2°57.042 -999 3.880934 32.823438 -2.871232
2006-11-23 08:53:29 51°21.351 2°57.067 -999 3.881245 32.827988 -2.871232
2006-11-23 08:53:34 51°21.361 2°57.091 -999 3.880416 32.820983 -2.871232
2006-11-23 08:53:39 51°21.371 2°57.116 -999 3.880416 32.820983 -2.871232
2006-11-23 08:53:44 51°21.382 2°57.139 -999 3.880416 32.821793 -2.871232
2006-11-23 08:53:49 51°21.39 2°57.164 -999 3.880313 32.821626 -2.871232
2006-11-23 08:53:54 51°21.4 2°57.188 -999 3.880105 32.821292 -2.871232
2006-11-23 08:53:59 51°21.41 2°57.211 -999 3.880313 32.824866 -2.871232
2006-11-23 08:54:04 51°21.418 2°57.235 -999 3.879587 32.818837 -2.871232
2006-11-23 08:54:09 51°21.429 2°57.259 -999 3.879587 32.818837 -2.871232
2006-11-23 08:54:14 51°21.438 2°57.283 -999 3.879898 32.821768 -2.871232
2006-11-23 08:54:19 51°21.447 2°57.307 -999 3.879069 32.816381 -2.871232
2006-11-23 08:54:24 51°21.455 2°57.332 -999 3.879587 32.822887 -2.871232
2006-11-23 08:54:29 51°21.464 2°57.356 -999 3.878654 32.816523 -2.871232
2006-11-23 08:54:34 51°21.472 2°57.381 -999 3.878862 32.820097 -2.871232
2006-11-23 08:54:39 51°21.48 2°57.406 -999 3.878862 32.820097 -2.871232
2006-11-23 08:54:44 51°21.489 2°57.43 -999 3.878654 32.818953 -2.871232
2006-11-23 08:54:49 51°21.498 2°57.455 -999 3.878447 32.816998 -2.871232
2006-11-23 08:54:54 51°21.507 2°57.479 -999 3.878551 32.818786 -2.871232
2006-11-23 08:54:59 51°21.515 2°57.504 -999 3.877514 32.809823 -2.871232
2006-11-23 08:55:03 51°21.523 2°57.524 -999 3.877722 32.815018 -2.871232
2006-11-23 08:55:09 51°21.535 2°57.553 -999 3.877722 32.815018 -2.871232
2006-11-23 08:55:14 51°21.545 2°57.577 -999 3.877618 32.816471 -2.871232
2006-11-23 08:55:19 51°21.553 2°57.601 -999 3.876892 32.81125 -2.871232
2006-11-23 08:55:24 51°21.561 2°57.627 -999 3.876581 32.809938 -2.871232
2006-11-23 08:55:29 51°21.57 2°57.654 -999 3.876685 32.811726 -2.871232
2006-11-23 08:55:34 51°21.578 2°57.678 -999 3.876271 32.808626 -2.871232
2006-11-23 08:55:39 51°21.584 2°57.704 -999 3.876271 32.808626 -2.871232
2006-11-23 08:55:44 51°21.591 2°57.73 -999 3.877825 32.823289 -2.871232
2006-11-23 08:55:49 51°21.598 2°57.757 -999 3.876167 32.807648 -2.871232
2006-11-23 08:55:54 51°21.606 2°57.783 -999 3.875752 32.804548 -2.871232
2006-11-23 08:55:59 51°21.612 2°57.808 -999 3.87585 32.39846 -2.871232
2006-11-23 08:56:04 51°21.62 2°57.833 -999 0.138986 0.918021 -2.871232
2006-11-23 08:56:09 51°21.629 2°57.858 -999 0.138986 0.918021 -2.871232
2006-11-23 08:56:14 51°21.639 2°57.881 -999 3.875027 32.805808 -2.871232
2006-11-23 08:56:19 51°21.648 2°57.904 -999 3.874198 32.800417 -2.871232
2006-11-23 08:56:24 51°21.658 2°57.928 -999 3.873887 32.798294 -2.871232
2006-11-23 08:56:29 51°21.669 2°57.95 -999 3.873576 32.798601 -2.871232
2006-11-23 08:56:34 51°21.678 2°57.974 -999 3.873357 -999 -2.871232
2006-11-23 08:56:39 51°21.688 2°57.998 -999 3.873357 -999 -2.871232
2006-11-23 08:56:44 51°21.697 2°58.021 -999 3.873058 32.800195 -2.871232
2006-11-23 08:56:49 51°21.706 2°58.044 -999 3.872125 32.796256 -2.871232
2006-11-23 08:56:54 51°21.715 2°58.065 -999 3.871296 32.790052 -2.871232
2006-11-23 08:56:59 51°21.724 2°58.086 -999 3.871296 32.790862 -2.871232
2006-11-23 08:57:04 51°21.731 2°58.103 -999 3.871088 32.789717 -2.871232
2006-11-23 08:57:09 51°21.738 2°58.122 -999 3.871088 32.789717 -2.871232
2006-11-23 08:57:14 51°21.745 2°58.137 -999 3.870881 32.789381 -2.871232
2006-11-23 08:57:19 51°21.75 2°58.153 -999 3.869534 32.784769 -2.871232
2006-11-23 08:57:24 51°21.757 2°58.167 -999 3.868497 32.783902 -2.871232
2006-11-23 08:57:29 51°21.762 2°58.181 -999 3.867979 32.784685 -2.871232
2006-11-23 08:57:34 51°21.767 2°58.193 -999 3.867461 32.781413 -2.871232
2006-11-23 08:57:39 51°21.771 2°58.205 -999 3.867461 32.781413 -2.871232
2006-11-23 08:57:44 51°21.775 2°58.213 -999 3.867668 32.78337 -2.871232
2006-11-23 08:57:49 51°21.779 2°58.221 -999 3.867357 32.778812 -2.871232
2006-11-23 08:57:54 51°21.783 2°58.227 -999 3.867772 32.782727 -2.871232
2006-11-23 08:57:59 51°21.786 2°58.231 -999 3.866943 32.776519 -2.871232
2006-11-23 08:58:04 51°21.789 2°58.234 -999 3.867357 32.780434 -2.871232
2006-11-23 08:58:09 51°21.792 2°58.237 -999 3.867357 32.780434 -2.871232
2006-11-23 08:58:14 51°21.794 2°58.239 -999 3.86715 32.776855 -2.871232
2006-11-23 08:58:19 51°21.796 2°58.243 -999 3.867772 32.780294 -2.871232
2006-11-23 08:58:24 51°21.798 2°58.246 -999 3.868083 32.779987 -2.871232
2006-11-23 08:58:29 51°21.801 2°58.249 -999 3.868601 32.780827 -2.871232
2006-11-23 08:58:34 51°21.806 2°58.253 -999 3.868808 32.77792 -2.871232
2006-11-23 08:58:39 51°21.811 2°58.255 -999 3.868808 32.77792 -2.871232
2006-11-23 08:58:44 51°21.817 2°58.256 -999 3.869326 32.77957 -2.871232
2006-11-23 08:58:49 51°21.824 2°58.255 -999 3.869326 32.780381 -2.871232
2006-11-23 08:58:54 51°21.831 2°58.251 -999 3.869223 32.780213 -2.871232
2006-11-23 08:58:59 51°21.837 2°58.247 -999 3.868734 23.455119 -2.871232
2006-11-23 08:59:04 51°21.844 2°58.24 -999 3.868394 32.776438 -2.871232
2006-11-23 08:59:09 51°21.85 2°58.231 -999 3.868394 32.776438 -2.871232
2006-11-23 08:59:14 51°21.855 2°58.221 -999 3.866943 32.774086 -2.871232
2006-11-23 08:59:19 51°21.859 2°58.208 -999 3.865388 32.772377 -2.871232
2006-11-23 08:59:24 51°21.862 2°58.195 -999 3.863419 32.767561 -2.871232
2006-11-23 08:59:29 51°21.863 2°58.182 -999 3.861968 32.766019 -2.871232
2006-11-23 08:59:34 51°21.864 2°58.17 -999 3.860414 32.761873 -2.871232
2006-11-23 08:59:39 51°21.864 2°58.158 -999 3.860414 32.761873 -2.871232
2006-11-23 08:59:44 51°21.863 2°58.147 -999 3.859066 32.758874 -2.871232
2006-11-23 08:59:49 51°21.862 2°58.136 -999 3.857926 32.754586 -2.871232
2006-11-23 08:59:54 51°21.86 2°58.125 -999 3.856683 32.749317 -2.871232
2006-11-23 08:59:59 51°21.858 2°58.115 -999 3.856579 32.752397 -2.871232
2006-11-23 09:00:04 51°21.855 2°58.106 -999 3.856165 32.750911 -2.871232
2006-11-23 09:00:09 51°21.852 2°58.098 -999 3.856165 32.750911 -2.871232
2006-11-23 09:00:14 51°21.849 2°58.091 -999 3.856372 32.75206 -2.871232
2006-11-23 09:00:19 51°21.847 2°58.085 -999 3.856579 32.749961 -2.871232
2006-11-23 09:00:24 51°21.845 2°58.079 -999 3.857201 32.751783 -2.871232
2006-11-23 09:00:29 51°21.842 2°58.073 -999 3.857615 32.750833 -2.871232
2006-11-23 09:00:34 51°21.84 2°58.067 -999 3.858963 32.759517 -2.871232
2006-11-23 09:00:39 51°21.838 2°58.061 -999 3.858963 32.759517 -2.871232
2006-11-23 09:00:43 51°21.836 2°58.055 -999 3.858963 32.75627 -2.871232
2006-11-23 09:00:49 51°21.834 2°58.047 -999 3.859481 32.759547 -2.871232
2006-11-23 09:00:54 51°21.832 2°58.041 -999 3.859481 32.757923 -2.871232
2006-11-23 09:00:59 51°21.83 2°58.034 -999 3.859688 32.75826 -2.871232
2006-11-23 09:01:04 51°21.828 2°58.027 -999 3.859895 32.76022 -2.871232
2006-11-23 09:01:09 51°21.826 2°58.021 -999 3.859895 32.76022 -2.871232
2006-11-23 09:01:14 51°21.824 2°58.014 -999 3.859999 32.7612 -2.871232
2006-11-23 09:01:19 51°21.822 2°58.008 -999 3.859999 32.762012 -2.871232
2006-11-23 09:01:24 51°21.819 2°58.001 -999 3.859895 32.761843 -2.871232
2006-11-23 09:01:29 51°21.816 2°57.995 -999 3.859999 32.762012 -2.871232
2006-11-23 09:01:34 51°21.813 2°57.989 -999 3.859895 32.76022 -2.871232
2006-11-23 09:01:39 51°21.81 2°57.984 -999 3.859895 32.76022 -2.871232
2006-11-23 09:01:44 51°21.806 2°57.979 -999 3.860206 32.762348 -2.871232
2006-11-23 09:01:49 51°21.802 2°57.974 -999 3.860206 32.761536 -2.871232
2006-11-23 09:01:54 51°21.799 2°57.97 -999 3.860517 32.763664 -2.871232
2006-11-23 09:01:59 51°21.794 2°57.966 -999 3.861139 32.767109 -2.871232
2006-11-23 09:02:04 51°21.79 2°57.962 -999 3.86145 32.769237 -2.871232
2006-11-23 09:02:09 51°21.786 2°57.959 -999 3.86145 32.769237 -2.871232
2006-11-23 09:02:14 51°21.781 2°57.956 -999 3.860725 32.762377 -2.871232
2006-11-23 09:02:19 51°21.776 2°57.955 -999 3.86145 32.769237 -2.871232
2006-11-23 09:02:24 51°21.771 2°57.954 -999 3.861139 32.767109 -2.871232
2006-11-23 09:02:29 51°21.765 2°57.952 -999 3.861346 32.769881 -2.871232
2006-11-23 09:02:34 51°21.761 2°57.95 -999 3.860828 32.764981 -2.871232
2006-11-23 09:02:39 51°21.755 2°57.949 -999 3.860828 32.764981 -2.871232
2006-11-23 09:02:44 51°21.75 2°57.949 -999 3.86145 32.769237 -2.871232
2006-11-23 09:02:49 51°21.744 2°57.949 -999 3.861243 32.761595 -2.871232
2006-11-23 09:02:54 51°21.739 2°57.949 -999 3.861865 32.762605 -2.871232
2006-11-23 09:02:59 51°21.734 2°57.95 -999 3.862175 32.763921 -2.871232
2006-11-23 09:03:04 51°21.728 2°57.953 -999 3.861865 32.761793 -2.871232
2006-11-23 09:03:09 51°21.723 2°57.957 -999 3.861865 32.761793 -2.871232
2006-11-23 09:03:14 51°21.718 2°57.962 -999 3.862072 32.764564 -2.871232
2006-11-23 09:03:19 51°21.714 2°57.968 -999 3.861968 32.765207 -2.871232
2006-11-23 09:03:24 51°21.711 2°57.975 -999 3.862072 32.766999 -2.871232
2006-11-23 09:03:29 51°21.707 2°57.983 -999 3.862486 32.770106 -2.871232
2006-11-23 09:03:34 51°21.705 2°57.992 -999 3.862072 32.765376 -2.871232
2006-11-23 09:03:39 51°21.704 2°58.001 -999 3.862072 32.765376 -2.871232
2006-11-23 09:03:44 51°21.704 2°58.01 -999 3.862694 32.770442 -2.871232
2006-11-23 09:03:49 51°21.705 2°58.02 -999 3.861761 32.761625 -2.871232
2006-11-23 09:03:54 51°21.707 2°58.029 -999 3.862383 32.766691 -2.871232
2006-11-23 09:03:59 51°21.709 2°58.039 -999 3.861243 32.755105 -2.871232
2006-11-23 09:04:04 51°21.713 2°58.047 -999 3.861864 32.758548 -2.871232
2006-11-23 09:04:09 51°21.717 2°58.056 -999 3.861864 32.758548 -2.871232
2006-11-23 09:04:14 51°21.72 2°58.064 -999 3.862486 32.761992 -2.871232
2006-11-23 09:04:19 51°21.724 2°58.072 -999 3.862797 32.76493 -2.871232
2006-11-23 09:04:24 51°21.728 2°58.08 -999 3.863212 32.768036 -2.871232
2006-11-23 09:04:29 51°21.732 2°58.089 -999 3.863419 32.767561 -2.871232
2006-11-23 09:04:34 51°21.735 2°58.096 -999 3.863626 32.764653 -2.871232
2006-11-23 09:04:39 51°21.738 2°58.104 -999 3.863626 32.764653 -2.871232
2006-11-23 09:04:44 51°21.74 2°58.111 -999 3.864352 32.765019 -2.871232
2006-11-23 09:04:49 51°21.742 2°58.118 -999 3.865492 32.772545 -2.871232
2006-11-23 09:04:54 51°21.744 2°58.124 -999 3.865699 32.770448 -2.871232
2006-11-23 09:04:59 51°21.744 2°58.129 -999 3.866528 32.774225 -2.871232
2006-11-23 09:05:04 51°21.745 2°58.132 -999 3.866735 32.77294 -2.871232
2006-11-23 09:05:09 51°21.745 2°58.134 -999 3.866735 32.77294 -2.871232
2006-11-23 09:05:14 51°21.746 2°58.135 -999 3.867046 32.774254 -2.871232
2006-11-23 09:05:19 51°21.746 2°58.136 -999 3.867565 32.778337 -2.871232
2006-11-23 09:05:23 51°21.745 2°58.136 -999 3.86715 32.776044 -2.871232
2006-11-23 09:05:29 51°21.745 2°58.136 -999 3.866735 32.77375 -2.871232
2006-11-23 09:05:34 51°21.745 2°58.137 -999 3.866321 32.772267 -2.871232
2006-11-23 09:05:39 51°21.745 2°58.137 -999 3.866321 32.772267 -2.871232
2006-11-23 09:05:44 51°21.745 2°58.137 -999 3.86601 32.771763 -2.871232
2006-11-23 09:05:49 51°21.745 2°58.138 -999 3.865906 32.773217 -2.871232
2006-11-23 09:05:54 51°21.745 2°58.138 -999 3.864766 32.764881 -2.871232
2006-11-23 09:05:59 51°21.745 2°58.138 -999 3.865285 32.772209 -2.871232
2006-11-23 09:06:04 51°21.745 2°58.139 -999 3.864352 32.76583 -2.871232
2006-11-23 09:06:09 51°21.745 2°58.139 -999 3.864352 32.76583 -2.871232
2006-11-23 09:06:14 51°21.744 2°58.139 -999 3.864145 32.764683 -2.871232
2006-11-23 09:06:19 51°21.744 2°58.139 -999 3.864248 32.767284 -2.871232
2006-11-23 09:06:24 51°21.744 2°58.139 -999 3.863626 32.76222 -2.871232
2006-11-23 09:06:29 51°21.744 2°58.139 -999 3.863315 32.761715 -2.871232
2006-11-23 09:06:34 51°21.743 2°58.14 -999 3.862694 32.759895 -2.871232
2006-11-23 09:06:39 51°21.743 2°58.14 -999 3.862694 32.759895 -2.871232
2006-11-23 09:06:44 51°21.743 2°58.14 -999 3.862694 32.762328 -2.871232
2006-11-23 09:06:49 51°21.743 2°58.14 -999 3.861968 32.758717 -2.871232
2006-11-23 09:06:54 51°21.742 2°58.141 -999 3.86145 32.757064 -2.871232
2006-11-23 09:06:59 51°21.742 2°58.141 -999 3.861139 32.755748 -2.871232
2006-11-23 09:07:04 51°21.741 2°58.142 -999 3.861035 32.755579 -2.871232
2006-11-23 09:07:09 51°21.741 2°58.142 -999 3.861035 32.755579 -2.871232
2006-11-23 09:07:14 51°21.741 2°58.142 -999 3.860621 32.754094 -2.871232
2006-11-23 09:07:19 51°21.74 2°58.142 -999 3.860103 32.750007 -2.871232
2006-11-23 09:07:23 51°21.74 2°58.142 -999 3.859999 32.75065 -2.871232
2006-11-23 09:07:29 51°21.739 2°58.143 -999 3.860103 32.752441 -2.871232
2006-11-23 09:07:34 51°21.739 2°58.143 -999 3.859895 32.751293 -2.871232
2006-11-23 09:07:39 51°21.738 2°58.143 -999 3.859895 32.751293 -2.871232
2006-11-23 09:07:44 51°21.737 2°58.144 -999 3.859584 32.749165 -2.871232
2006-11-23 09:07:49 51°21.737 2°58.144 -999 3.859584 32.750787 -2.871232
2006-11-23 09:07:54 51°21.736 2°58.144 -999 3.859792 32.75437 -2.871232
2006-11-23 09:07:59 51°21.735 2°58.145 -999 3.859377 32.752885 -2.871232
2006-11-23 09:08:03 51°21.735 2°58.145 -999 3.859274 32.75434 -2.871232
2006-11-23 09:08:09 51°21.734 2°58.145 -999 3.859274 32.75434 -2.871232
2006-11-23 09:08:14 51°21.733 2°58.145 -999 3.85803 32.745826 -2.871232
2006-11-23 09:08:19 51°21.733 2°58.145 -999 3.857823 32.7463 -2.871232
2006-11-23 09:08:24 51°21.732 2°58.145 -999 3.857097 32.742685 -2.871232
2006-11-23 09:08:29 51°21.732 2°58.146 -999 3.857719 32.751002 -2.871232
2006-11-23 09:08:34 51°21.731 2°58.146 -999 3.856475 32.740862 -2.871232
2006-11-23 09:08:39 51°21.73 2°58.146 -999 3.856475 32.740862 -2.871232
2006-11-23 09:08:44 51°21.73 2°58.146 -999 3.856683 32.744446 -2.871232
2006-11-23 09:08:49 51°21.729 2°58.146 -999 3.856372 32.742316 -2.871232
2006-11-23 09:08:54 51°21.729 2°58.146 -999 3.856372 32.74394 -2.871232
2006-11-23 09:08:59 51°21.729 2°58.146 -999 3.855854 32.740661 -2.871232
2006-11-23 09:09:04 51°21.728 2°58.147 -999 3.855646 32.740324 -2.871232
2006-11-23 09:09:09 51°21.727 2°58.147 -999 3.855646 32.740324 -2.871232
2006-11-23 09:09:14 51°21.727 2°58.147 -999 3.855439 32.738363 -2.871232
2006-11-23 09:09:19 51°21.727 2°58.147 -999 3.855957 32.743266 -2.871232
2006-11-23 09:09:24 51°21.726 2°58.147 -999 3.855854 32.742285 -2.871232
2006-11-23 09:09:29 51°21.726 2°58.147 -999 3.855646 32.739512 -2.871232
2006-11-23 09:09:34 51°21.726 2°58.147 -999 3.855543 32.739344 -2.871232
2006-11-23 09:09:39 51°21.725 2°58.147 -999 3.855543 32.739344 -2.871232
2006-11-23 09:09:44 51°21.725 2°58.147 -999 3.856164 32.745227 -2.871232
2006-11-23 09:09:49 51°21.724 2°58.147 -999 3.855439 32.739175 -2.871232
2006-11-23 09:09:54 51°21.724 2°58.148 -999 3.855335 32.737383 -2.871232
2006-11-23 09:09:59 51°21.723 2°58.147 -999 3.855646 32.739512 -2.871232
2006-11-23 09:10:04 51°21.723 2°58.147 -999 3.855646 32.739512 -2.871232
2006-11-23 09:10:09 51°21.723 2°58.147 -999 3.855646 32.739512 -2.871232
2006-11-23 09:10:14 51°21.723 2°58.147 -999 3.856994 32.750634 -2.871232
2006-11-23 09:10:19 51°21.722 2°58.147 -999 3.855646 32.737077 -2.871232
2006-11-23 09:10:24 51°21.722 2°58.147 -999 3.855957 32.740018 -2.871232
2006-11-23 09:10:29 51°21.721 2°58.147 -999 3.855957 32.740018 -2.871232
2006-11-23 09:10:34 51°21.721 2°58.147 -999 3.855853 32.738226 -2.871232
2006-11-23 09:10:39 51°21.721 2°58.147 -999 3.855853 32.738226 -2.871232
2006-11-23 09:10:44 51°21.721 2°58.147 -999 3.856372 32.742316 -2.871232
2006-11-23 09:10:49 51°21.721 2°58.147 -999 3.856164 32.737921 -2.871232
2006-11-23 09:10:54 51°21.721 2°58.147 -999 3.856372 32.738258 -2.871232
2006-11-23 09:10:59 51°21.72 2°58.147 -999 3.856579 32.738596 -2.871232
2006-11-23 09:11:04 51°21.72 2°58.147 -999 3.857512 32.745794 -2.871232
2006-11-23 09:11:09 51°21.72 2°58.147 -999 3.857512 32.745794 -2.871232
2006-11-23 09:11:14 51°21.719 2°58.146 -999 3.857512 32.74336 -2.871232
2006-11-23 09:11:19 51°21.719 2°58.146 -999 3.857512 32.740925 -2.871232
2006-11-23 09:11:24 51°21.719 2°58.146 -999 3.857615 32.741094 -2.871232
2006-11-23 09:11:29 51°21.719 2°58.146 -999 3.857719 32.73964 -2.871232
2006-11-23 09:11:34 51°21.718 2°58.146 -999 3.858237 32.742917 -2.871232
2006-11-23 09:11:39 51°21.718 2°58.146 -999 3.858237 32.742917 -2.871232
2006-11-23 09:11:44 51°21.718 2°58.146 -999 3.858444 32.742443 -2.871232
2006-11-23 09:11:49 51°21.718 2°58.146 -999 3.858444 32.740821 -2.871232
2006-11-23 09:11:54 51°21.718 2°58.146 -999 3.858548 32.740178 -2.871232
2006-11-23 09:11:59 51°21.718 2°58.146 -999 3.859481 32.748185 -2.871232
2006-11-23 09:12:04 51°21.717 2°58.146 -999 3.859999 32.752273 -2.871232
2006-11-23 09:12:09 51°21.717 2°58.146 -999 3.859999 32.752273 -2.871232
2006-11-23 09:12:14 51°21.717 2°58.145 -999 3.859066 32.741833 -2.871232
2006-11-23 09:12:19 51°21.717 2°58.145 -999 3.859584 32.745109 -2.871232
2006-11-23 09:12:24 51°21.716 2°58.145 -999 3.859999 32.747405 -2.871232
2006-11-23 09:12:29 51°21.716 2°58.144 -999 3.859999 32.745783 -2.871232
2006-11-23 09:12:34 51°21.716 2°58.144 -999 3.860724 32.751018 -2.871232
2006-11-23 09:12:39 51°21.716 2°58.144 -999 3.860724 32.751018 -2.871232
2006-11-23 09:12:44 51°21.716 2°58.144 -999 3.86031 32.7471 -2.871232
2006-11-23 09:12:49 51°21.715 2°58.143 -999 3.860413 32.748891 -2.871232
2006-11-23 09:12:54 51°21.715 2°58.143 -999 3.860206 32.746931 -2.871232
2006-11-23 09:12:59 51°21.716 2°58.143 -999 3.860621 32.75085 -2.871232
2006-11-23 09:13:04 51°21.716 2°58.142 -999 3.859895 32.743182 -2.871232
2006-11-23 09:13:09 51°21.715 2°58.142 -999 3.859895 32.743182 -2.871232
2006-11-23 09:13:14 51°21.716 2°58.142 -999 3.86145 32.757875 -2.871232
2006-11-23 09:13:19 51°21.715 2°58.142 -999 3.86145 32.757875 -2.871232
2006-11-23 09:13:24 51°21.715 2°58.142 -999 3.861346 32.758518 -2.871232
2006-11-23 09:13:29 51°21.715 2°58.142 -999 3.861243 32.75835 -2.871232
2006-11-23 09:13:34 51°21.715 2°58.141 -999 3.861139 32.758181 -2.871232
2006-11-23 09:13:39 51°21.715 2°58.141 -999 3.861139 32.758181 -2.871232
2006-11-23 09:13:43 51°21.715 2°58.141 -999 3.861035 32.757202 -2.871232
2006-11-23 09:13:49 51°21.714 2°58.14 -999 3.861035 32.757202 -2.871232
2006-11-23 09:13:54 51°21.714 2°58.14 -999 3.861035 32.757202 -2.871232
2006-11-23 09:13:59 51°21.714 2°58.14 -999 3.861035 32.758013 -2.871232
2006-11-23 09:14:04 51°21.714 2°58.14 -999 3.860932 32.757033 -2.871232
2006-11-23 09:14:09 51°21.714 2°58.14 -999 3.860932 32.757033 -2.871232
2006-11-23 09:14:14 51°21.714 2°58.14 -999 3.861035 32.758013 -2.871232
2006-11-23 09:14:19 51°21.714 2°58.14 -999 3.861035 32.757202 -2.871232
2006-11-23 09:14:24 51°21.713 2°58.14 -999 3.861035 32.75639 -2.871232
2006-11-23 09:14:29 51°21.714 2°58.14 -999 3.861139 32.756559 -2.871232
2006-11-23 09:14:34 51°21.714 2°58.139 -999 3.861243 32.757538 -2.871232
2006-11-23 09:14:39 51°21.713 2°58.139 -999 3.861243 32.757538 -2.871232
2006-11-23 09:14:44 51°21.713 2°58.139 -999 3.861346 32.757707 -2.871232
2006-11-23 09:14:49 51°21.713 2°58.139 -999 3.861346 32.757707 -2.871232
2006-11-23 09:14:55 51°21.712 2°58.139 -999 3.86145 32.757064 -2.871232
2006-11-23 09:14:59 51°21.712 2°58.139 -999 3.861657 32.758212 -2.871232
2006-11-23 09:15:04 51°21.712 2°58.138 -999 3.861761 32.75838 -2.871232
2006-11-23 09:15:09 51°21.712 2°58.139 -999 3.861761 32.75838 -2.871232
2006-11-23 09:15:14 51°21.712 2°58.138 -999 3.861864 32.758548 -2.871232
2006-11-23 09:15:19 51°21.711 2°58.138 -999 3.861968 32.758717 -2.871232
2006-11-23 09:15:24 51°21.711 2°58.138 -999 3.861968 32.758717 -2.871232
2006-11-23 09:15:29 51°21.711 2°58.138 -999 3.861968 32.759528 -2.871232
2006-11-23 09:15:34 51°21.711 2°58.138 -999 3.861968 32.758717 -2.871232
2006-11-23 09:15:39 51°21.711 2°58.137 -999 3.861968 32.758717 -2.871232
2006-11-23 09:15:44 51°21.711 2°58.137 -999 3.861968 32.758717 -2.871232
2006-11-23 09:15:49 51°21.711 2°58.136 -999 3.861968 32.757905 -2.871232
2006-11-23 09:15:54 51°21.711 2°58.136 -999 3.862072 32.758074 -2.871232
2006-11-23 09:15:59 51°21.71 2°58.136 -999 3.862175 32.759053 -2.871232
2006-11-23 09:16:04 51°21.71 2°58.136 -999 3.862072 32.758074 -2.871232
2006-11-23 09:16:09 51°21.71 2°58.136 -999 3.862072 32.758074 -2.871232
2006-11-23 09:16:14 51°21.709 2°58.135 -999 3.862072 32.758885 -2.871232
2006-11-23 09:16:19 51°21.71 2°58.135 -999 3.861968 32.757905 -2.871232
2006-11-23 09:16:24 51°21.709 2°58.135 -999 3.861968 32.757905 -2.871232
2006-11-23 09:16:29 51°21.709 2°58.135 -999 3.861864 32.757737 -2.871232
2006-11-23 09:16:34 51°21.709 2°58.135 -999 3.861554 32.75561 -2.871232
2006-11-23 09:16:39 51°21.709 2°58.134 -999 3.861554 32.75561 -2.871232
2006-11-23 09:16:44 51°21.709 2°58.134 -999 3.86145 32.756253 -2.871232
2006-11-23 09:16:49 51°21.708 2°58.134 -999 3.861346 32.756895 -2.871232
2006-11-23 09:16:54 51°21.708 2°58.134 -999 3.861139 32.754936 -2.871232
2006-11-23 09:16:59 51°21.708 2°58.134 -999 3.861139 32.754936 -2.871232
2006-11-23 09:17:04 51°21.708 2°58.134 -999 3.861035 32.754768 -2.871232
2006-11-23 09:17:09 51°21.708 2°58.134 -999 3.861035 32.754768 -2.871232
2006-11-23 09:17:14 51°21.708 2°58.134 -999 3.860932 32.753788 -2.871232
2006-11-23 09:17:19 51°21.708 2°58.133 -999 3.860828 32.754431 -2.871232
2006-11-23 09:17:24 51°21.707 2°58.133 -999 3.860621 32.753283 -2.871232
2006-11-23 09:17:29 51°21.707 2°58.133 -999 3.860206 32.751798 -2.871232
2006-11-23 09:17:34 51°21.707 2°58.133 -999 3.859792 32.750313 -2.871232
2006-11-23 09:17:39 51°21.707 2°58.133 -999 3.859792 32.750313 -2.871232
2006-11-23 09:17:44 51°21.707 2°58.133 -999 3.859792 32.750313 -2.871232
2006-11-23 09:17:49 51°21.707 2°58.133 -999 3.859895 32.751293 -2.871232
2006-11-23 09:17:54 51°21.707 2°58.132 -999 3.859895 32.751293 -2.871232
2006-11-23 09:17:59 51°21.706 2°58.132 -999 3.859895 32.751293 -2.871232
2006-11-23 09:18:03 51°21.706 2°58.133 -999 3.859999 32.752273 -2.871232
2006-11-23 09:18:09 51°21.706 2°58.132 -999 3.859999 32.752273 -2.871232
2006-11-23 09:18:14 51°21.706 2°58.132 -999 3.859895 32.751293 -2.871232
2006-11-23 09:18:19 51°21.705 2°58.132 -999 3.859792 32.751124 -2.871232
2006-11-23 09:18:24 51°21.705 2°58.132 -999 3.859584 32.750787 -2.871232
2006-11-23 09:18:29 51°21.705 2°58.131 -999 3.859377 32.750451 -2.871232
2006-11-23 09:18:34 51°21.705 2°58.131 -999 3.85917 32.749302 -2.871232
2006-11-23 09:18:39 51°21.705 2°58.131 -999 3.85917 32.749302 -2.871232
2006-11-23 09:18:44 51°21.705 2°58.131 -999 3.858963 32.748965 -2.871232
2006-11-23 09:18:49 51°21.705 2°58.13 -999 3.858755 32.748628 -2.871232
2006-11-23 09:18:54 51°21.704 2°58.13 -999 3.858548 32.74748 -2.871232
2006-11-23 09:18:59 51°21.704 2°58.13 -999 3.858341 32.747143 -2.871232
2006-11-23 09:19:04 51°21.703 2°58.13 -999 3.858133 32.745994 -2.871232
2006-11-23 09:19:09 51°21.704 2°58.13 -999 3.858133 32.745994 -2.871232
2006-11-23 09:19:14 51°21.703 2°58.13 -999 3.857926 32.744846 -2.871232
2006-11-23 09:19:19 51°21.703 2°58.13 -999 3.857823 32.744677 -2.871232
2006-11-23 09:19:24 51°21.703 2°58.129 -999 3.857719 32.743697 -2.871232
2006-11-23 09:19:29 51°21.703 2°58.129 -999 3.85689 32.735857 -2.871232
2006-11-23 09:19:34 51°21.703 2°58.129 -999 3.857615 32.743528 -2.871232
2006-11-23 09:19:39 51°21.703 2°58.129 -999 3.857615 32.743528 -2.871232
2006-11-23 09:19:44 51°21.703 2°58.128 -999 3.857512 32.74336 -2.871232
2006-11-23 09:19:49 51°21.703 2°58.128 -999 3.857512 32.74336 -2.871232
2006-11-23 09:19:54 51°21.703 2°58.128 -999 3.857408 32.74238 -2.871232
2006-11-23 09:19:59 51°21.702 2°58.127 -999 3.857408 32.743191 -2.871232
2006-11-23 09:20:04 51°21.702 2°58.126 -999 3.857304 32.742211 -2.871232
2006-11-23 09:20:09 51°21.702 2°58.126 -999 3.857304 32.742211 -2.871232
2006-11-23 09:20:14 51°21.702 2°58.126 -999 3.857408 32.743191 -2.871232
2006-11-23 09:20:19 51°21.702 2°58.126 -999 3.857408 32.743191 -2.871232
2006-11-23 09:20:24 51°21.702 2°58.126 -999 3.857304 32.743022 -2.871232
2006-11-23 09:20:29 51°21.702 2°58.125 -999 3.857304 32.743022 -2.871232
2006-11-23 09:20:34 51°21.701 2°58.125 -999 3.857201 32.742854 -2.871232
2006-11-23 09:20:39 51°21.701 2°58.125 -999 3.857201 32.742854 -2.871232
2006-11-23 09:20:44 51°21.701 2°58.125 -999 3.857097 32.742685 -2.871232
2006-11-23 09:20:49 51°21.701 2°58.125 -999 3.856993 32.743328 -2.871232
2006-11-23 09:20:54 51°21.701 2°58.124 -999 3.856993 32.743328 -2.871232
2006-11-23 09:20:59 51°21.701 2°58.124 -999 3.85689 32.742348 -2.871232
2006-11-23 09:21:04 51°21.701 2°58.124 -999 3.856993 32.743328 -2.871232
2006-11-23 09:21:09 51°21.7 2°58.124 -999 3.856993 32.743328 -2.871232
2006-11-23 09:21:14 51°21.7 2°58.123 -999 3.857097 32.742685 -2.871232
2006-11-23 09:21:19 51°21.7 2°58.123 -999 3.857097 32.742685 -2.871232
2006-11-23 09:21:24 51°21.7 2°58.122 -999 3.857201 32.742042 -2.871232
2006-11-23 09:21:29 51°21.7 2°58.122 -999 3.857304 32.743022 -2.871232
2006-11-23 09:21:34 51°21.7 2°58.122 -999 3.857408 32.743191 -2.871232
2006-11-23 09:21:39 51°21.7 2°58.122 -999 3.857408 32.743191 -2.871232
2006-11-23 09:21:43 51°21.7 2°58.122 -999 3.857512 32.742548 -2.871232
2006-11-23 09:21:49 51°21.7 2°58.121 -999 3.857719 32.743697 -2.871232
2006-11-23 09:21:54 51°21.7 2°58.121 -999 3.857926 32.744034 -2.871232
2006-11-23 09:21:59 51°21.699 2°58.121 -999 3.85803 32.743391 -2.871232
2006-11-23 09:22:04 51°21.7 2°58.12 -999 3.858237 32.743729 -2.871232
2006-11-23 09:22:09 51°21.7 2°58.12 -999 3.858237 32.743729 -2.871232
2006-11-23 09:22:14 51°21.699 2°58.119 -999 3.858444 32.744066 -2.871232
2006-11-23 09:22:19 51°21.699 2°58.119 -999 3.858548 32.743423 -2.871232
2006-11-23 09:22:24 51°21.699 2°58.119 -999 3.858755 32.744571 -2.871232
2006-11-23 09:22:29 51°21.699 2°58.118 -999 3.858755 32.744571 -2.871232
2006-11-23 09:22:34 51°21.699 2°58.118 -999 3.858859 32.745551 -2.871232
2006-11-23 09:22:39 51°21.699 2°58.118 -999 3.858859 32.745551 -2.871232
2006-11-23 09:22:44 51°21.699 2°58.118 -999 3.858755 32.745383 -2.871232
2006-11-23 09:22:49 51°21.699 2°58.117 -999 3.858548 32.745046 -2.871232
2006-11-23 09:22:54 51°21.699 2°58.118 -999 3.858548 32.745046 -2.871232
2006-11-23 09:22:59 51°21.699 2°58.117 -999 3.858548 32.745046 -2.871232
2006-11-23 09:23:04 51°21.699 2°58.117 -999 3.858548 32.745857 -2.871232
2006-11-23 09:23:09 51°21.699 2°58.117 -999 3.858548 32.745857 -2.871232
2006-11-23 09:23:14 51°21.699 2°58.117 -999 3.858548 32.745046 -2.871232
2006-11-23 09:23:19 51°21.698 2°58.117 -999 3.858548 32.745046 -2.871232
2006-11-23 09:23:24 51°21.698 2°58.116 -999 3.858652 32.745214 -2.871232
2006-11-23 09:23:29 51°21.698 2°58.116 -999 3.858859 32.74474 -2.871232
2006-11-23 09:23:34 51°21.698 2°58.116 -999 3.859066 32.744266 -2.871232
2006-11-23 09:23:39 51°21.698 2°58.116 -999 3.859066 32.744266 -2.871232
2006-11-23 09:23:44 51°21.698 2°58.115 -999 3.859377 32.744772 -2.871232
2006-11-23 09:23:49 51°21.697 2°58.116 -999 3.859584 32.745109 -2.871232
2006-11-23 09:23:54 51°21.697 2°58.116 -999 3.859895 32.747237 -2.871232
2006-11-23 09:23:59 51°21.697 2°58.115 -999 3.860103 32.746763 -2.871232
2006-11-23 09:24:04 51°21.697 2°58.115 -999 3.86031 32.7471 -2.871232
2006-11-23 09:24:09 51°21.697 2°58.115 -999 3.86031 32.7471 -2.871232
2006-11-23 09:24:14 51°21.697 2°58.115 -999 3.860517 32.747437 -2.871232
2006-11-23 09:24:19 51°21.696 2°58.115 -999 3.860621 32.747606 -2.871232
2006-11-23 09:24:24 51°21.696 2°58.114 -999 3.860621 32.746795 -2.871232
2006-11-23 09:24:29 51°21.696 2°58.114 -999 3.860724 32.746152 -2.871232
2006-11-23 09:24:34 51°21.696 2°58.114 -999 3.860828 32.747943 -2.871232
2006-11-23 09:24:39 51°21.696 2°58.114 -999 3.860828 32.747943 -2.871232